T10BNORTH Weather Reports


time (UTC)temp
C
wind
direction
speed
KPH
gust
KPH
rain 1hr
cm
rain 24hr
cm
rain mn
cm
humidity
%
barometer
mb
20260507152250 9 304 3.2 12.9 0.00 1.65 0.00 66 1005.9
20260507152214 9 340 3.2 9.7 0.00 1.65 0.00 67 1005.9
20260507152153 9 334 3.2 9.7 0.00 1.65 0.00 66 1005.9
20260507151935 9 334 3.2 9.7 0.00 1.65 0.00 70 1005.9
20260507151834 9 321 3.2 9.7 0.00 1.65 0.00 71 1005.9
20260507151736 9 11 3.2 9.7 0.00 1.65 0.00 71 1005.9
20260507151700 9 237 3.2 9.7 0.00 1.65 0.00 70 1005.9
20260507151639 9 207 3.2 9.7 0.00 1.65 0.00 70 1005.8
20260507151428 8 202 3.2 9.7 0.00 1.65 0.00 72 1005.9
20260507151329 8 300 3.2 9.7 0.00 1.65 0.00 72 1005.9
20260507151229 8 194 3.2 9.7 0.00 1.65 0.00 73 1005.9
20260507151129 8 284 1.6 9.7 0.00 1.65 0.00 74 1006.0
20260507150925 8 242 3.2 9.7 0.00 1.65 0.00 74 1006.1
20260507150822 8 242 3.2 9.7 0.00 1.65 0.00 74 1006.1
20260507150724 8 148 3.2 9.7 0.00 1.65 0.00 74 1006.1
20260507150621 8 18 3.2 12.9 0.00 1.65 0.00 75 1006.1
20260507150415 8 13 3.2 12.9 0.00 1.65 0.00 76 1006.1
20260507150313 8 310 3.2 12.9 0.00 1.65 0.00 76 1006.1
20260507150212 8 240 3.2 12.9 0.00 1.65 0.00 75 1006.1
20260507150112 8 240 3.2 12.9 0.00 1.65 0.00 75 1006.2
20260507145906 8 306 4.8 14.5 0.00 1.65 0.00 78 1006.1
20260507145806 8 313 4.8 14.5 0.00 1.65 0.00 78 1006.1
20260507145707 8 315 4.8 14.5 0.00 1.65 0.00 78 1006.1
20260507145607 8 315 4.8 14.5 0.00 1.65 0.00 78 1006.0
20260507145401 8 324 4.8 14.5 0.00 1.65 0.00 76 1006.0
20260507145300 8 308 4.8 14.5 0.00 1.65 0.00 75 1006.0
20260507145201 8 298 4.8 14.5 0.00 1.65 0.00 76 1006.1
20260507145105 8 296 3.2 9.7 0.00 1.65 0.00 78 1006.0
20260507144849 8 222 3.2 9.7 0.00 1.65 0.00 79 1006.0
20260507144745 8 40 3.2 9.7 0.00 1.65 0.00 77 1006.0
20260507144647 8 307 3.2 9.7 0.00 1.65 0.00 77 1006.0
20260507144546 8 251 3.2 9.7 0.00 1.65 0.00 76 1006.0
20260507144340 8 46 3.2 12.9 0.00 1.65 0.00 77 1006.0
20260507144241 8 117 3.2 12.9 0.00 1.65 0.00 77 1006.0
20260507144140 9 309 4.8 12.9 0.00 1.65 0.00 76 1006.1
20260507144040 9 322 4.8 12.9 0.00 1.65 0.00 75 1006.1
20260507143837 9 294 4.8 12.9 0.00 1.65 0.00 75 1006.0
20260507143734 9 294 4.8 14.5 0.00 1.65 0.00 75 1006.0
20260507143634 9 296 4.8 14.5 0.00 1.65 0.00 73 1006.0
20260507143601 10 280 4.8 14.5 0.00 1.65 0.00 74 1006.0
20260507143539 10 263 6.4 14.5 0.00 1.65 0.00 72 1006.0
20260507143325 10 307 4.8 14.5 0.00 1.65 0.00 73 1005.9
20260507143225 10 338 4.8 14.5 0.00 1.65 0.00 76 1006.0
20260507143125 10 253 4.8 14.5 0.00 1.65 0.00 73 1005.9
20260507143025 10 211 4.8 14.5 0.00 1.65 0.00 73 1005.9
20260507142821 10 309 4.8 14.5 0.00 1.65 0.00 74 1005.8
20260507142719 10 302 4.8 16.1 0.00 1.65 0.00 77 1005.8
20260507142619 10 290 4.8 16.1 0.00 1.65 0.00 76 1005.8
20260507142544 10 292 4.8 16.1 0.00 1.65 0.00 76 1005.8
20260507142522 10 315 4.8 16.1 0.00 1.65 0.00 75 1005.8
20260507142313 10 21 4.8 16.1 0.00 1.65 0.00 74 1005.8
20260507142212 10 216 4.8 16.1 0.00 1.65 0.00 72 1005.8
20260507142113 10 332 4.8 16.1 0.00 1.65 0.00 73 1005.9
20260507142013 10 15 4.8 16.1 0.00 1.65 0.00 72 1006.0
20260507141802 10 255 3.2 17.7 0.00 1.65 0.00 78 1005.9
20260507141701 10 297 3.2 17.7 0.00 1.65 0.00 73 1005.8
20260507141601 9 130 3.2 17.7 0.00 1.65 0.00 73 1005.8
20260507141501 9 180 3.2 17.7 0.00 1.65 0.00 73 1005.9
20260507141255 9 173 3.2 17.7 0.00 1.65 0.00 74 1005.9
20260507141152 9 213 3.2 17.7 0.00 1.65 0.00 73 1005.9
20260507141051 9 292 3.2 17.7 0.00 1.65 0.00 76 1005.9
20260507140952 9 325 3.2 14.5 0.00 1.65 0.00 76 1005.9
20260507140746 9 5 3.2 14.5 0.00 1.65 0.00 78 1005.9
20260507140645 9 122 3.2 14.5 0.00 1.65 0.00 77 1005.9
20260507140547 9 136 3.2 14.5 0.00 1.65 0.00 78 1005.9
20260507140445 9 123 3.2 14.5 0.00 1.65 0.00 80 1005.9
20260507140241 8 100 4.8 22.5 0.00 1.65 0.00 76 1005.8
20260507140140 8 248 3.2 22.5 0.00 1.65 0.00 77 1005.9
20260507140040 8 331 3.2 22.5 0.00 1.65 0.00 76 1005.9
20260507135939 8 286 3.2 22.5 0.00 1.65 0.00 80 1005.8
20260507135733 8 241 4.8 22.5 0.00 1.65 0.00 78 1005.8
20260507135630 8 323 4.8 22.5 0.00 1.65 0.00 79 1005.8
20260507135530 8 299 3.2 22.5 0.00 1.65 0.00 79 1005.8
20260507135457 8 315 4.8 22.5 0.00 1.65 0.00 78 1005.8
20260507135435 8 232 4.8 22.5 0.00 1.65 0.00 80 1005.8
20260507135224 8 254 3.2 14.5 0.00 1.65 0.00 82 1005.8
20260507135124 8 262 3.2 14.5 0.00 1.65 0.00 80 1005.9
20260507135024 8 264 3.2 14.5 0.00 1.65 0.00 80 1005.8
20260507134925 8 331 3.2 14.5 0.00 1.65 0.00 80 1005.8
20260507134710 8 175 3.2 19.3 0.00 1.65 0.00 80 1005.9
20260507134610 8 155 3.2 19.3 0.00 1.65 0.00 79 1005.9
20260507134511 8 292 3.2 19.3 0.00 1.65 0.00 79 1005.9
20260507134411 8 321 3.2 19.3 0.00 1.65 0.00 80 1005.9
20260507134204 8 324 3.2 19.3 0.00 1.65 0.00 79 1006.0
20260507134105 8 325 3.2 19.3 0.00 1.65 0.00 80 1006.0
20260507134004 8 331 3.2 19.3 0.00 1.65 0.00 79 1006.0
20260507133903 8 341 1.6 19.3 0.00 1.65 0.00 82 1006.0
20260507133705 8 283 3.2 9.7 0.00 1.65 0.00 80 1006.0
20260507133603 8 279 3.2 9.7 0.00 1.65 0.00 79 1006.0
20260507133500 8 307 1.6 9.7 0.00 1.65 0.00 79 1006.0
20260507133427 8 0 1.6 8.0 0.00 1.65 0.00 82 1006.0
20260507133403 8 275 1.6 8.0 0.00 1.65 0.00 81 1006.0
20260507133153 8 292 1.6 8.0 0.00 1.65 0.00 80 1006.1
20260507133052 8 327 1.6 8.0 0.00 1.65 0.00 80 1006.0
20260507132952 8 326 1.6 8.0 0.00 1.65 0.00 81 1006.1
20260507132851 8 275 1.6 8.0 0.00 1.65 0.00 81 1006.0
20260507132644 8 122 1.6 9.7 0.00 1.65 0.00 83 1006.0
20260507132543 8 121 1.6 9.7 0.00 1.65 0.00 83 1006.0
20260507132444 8 126 1.6 9.7 0.00 1.65 0.00 82 1006.0
20260507132345 8 215 1.6 9.7 0.00 1.65 0.00 85 1006.1
20260507132137 7 320 1.6 9.7 0.00 1.65 0.00 86 1006.1
20260507132035 7 309 1.6 9.7 0.00 1.65 0.00 86 1006.1
20260507131937 7 310 1.6 9.7 0.00 1.65 0.00 85 1006.1
20260507131902 7 348 1.6 9.7 0.00 1.65 0.00 84 1006.1
20260507131841 7 250 1.6 9.7 0.00 1.65 0.00 83 1006.1
20260507131625 7 329 1.6 9.7 0.00 1.65 0.00 84 1006.1
20260507131527 7 298 1.6 8.0 0.00 1.65 0.00 86 1006.1
20260507131424 7 294 1.6 8.0 0.00 1.65 0.00 86 1006.2
20260507131324 7 294 1.6 8.0 0.00 1.65 0.00 83 1006.2
20260507131115 7 0 1.6 8.0 0.00 1.65 0.00 84 1006.1
20260507131016 7 0 1.6 8.0 0.00 1.65 0.00 85 1006.2
20260507130916 7 14 1.6 9.7 0.00 1.65 0.00 85 1006.2
20260507130816 7 321 1.6 9.7 0.00 1.65 0.00 86 1006.2
20260507130613 7 234 1.6 9.7 0.00 1.65 0.00 84 1006.2
20260507130511 7 240 1.6 9.7 0.00 1.65 0.00 84 1006.2
20260507130411 7 232 1.6 9.7 0.00 1.65 0.00 84 1006.2
20260507130309 7 284 1.6 9.7 0.00 1.65 0.00 84 1006.2
20260507130103 7 281 0.0 9.7 0.00 1.65 0.00 84 1006.3
20260507130004 7 182 0.0 8.0 0.00 1.65 0.00 85 1006.4
20260507125905 7 184 0.0 4.8 0.00 1.65 0.00 84 1006.4
20260507125803 7 184 1.6 4.8 0.00 1.65 0.00 84 1006.4
20260507125556 7 296 1.6 9.7 0.00 1.65 0.00 86 1006.4
20260507125454 7 338 1.6 9.7 0.00 1.65 0.00 86 1006.3
20260507125354 7 338 3.2 9.7 0.00 1.65 0.00 86 1006.3
20260507125320 7 348 3.2 9.7 0.00 1.65 0.00 86 1006.3
20260507125259 7 121 3.2 12.9 0.00 1.65 0.00 86 1006.3
20260507125050 7 156 3.2 12.9 0.00 1.65 0.00 87 1006.3
20260507124951 7 153 3.2 12.9 0.00 1.65 0.00 86 1006.3
20260507124850 7 153 3.2 12.9 0.00 1.65 0.00 86 1006.3
20260507124751 7 153 3.2 12.9 0.00 1.65 0.00 87 1006.2
20260507124535 6 142 1.6 12.9 0.00 1.65 0.00 87 1006.2
20260507124433 6 140 1.6 12.9 0.00 1.65 0.00 88 1006.1
20260507124334 6 159 1.6 12.9 0.00 1.65 0.00 87 1006.1
20260507124234 6 134 1.6 12.9 0.00 1.65 0.00 87 1006.0
20260507124035 6 96 0.0 4.8 0.00 1.65 0.00 86 1006.0
20260507123932 6 96 0.0 4.8 0.00 1.65 0.00 86 1006.0
20260507123833 6 96 0.0 4.8 0.00 1.65 0.00 85 1005.9
20260507123731 6 96 1.6 4.8 0.00 1.65 0.00 86 1005.9
20260507123525 6 96 1.6 4.8 0.00 1.65 0.00 86 1005.9
20260507123422 6 96 1.6 9.7 0.00 1.65 0.00 86 1006.0
20260507123323 6 96 1.6 9.7 0.00 1.65 0.00 86 1006.0
20260507123249 6 107 1.6 9.7 0.00 1.65 0.00 86 1005.9
20260507123226 6 119 1.6 9.7 0.00 1.65 0.00 85 1005.9
20260507123016 6 119 1.6 9.7 0.00 1.65 0.00 86 1005.9
20260507122915 6 115 1.6 9.7 0.00 1.65 0.00 87 1005.9
20260507122816 6 122 1.6 9.7 0.00 1.65 0.00 87 1005.9
20260507122737 6 121 1.6 9.7 0.00 1.65 0.00 86 1005.9
20260507122716 6 126 1.6 9.7 0.00 1.65 0.00 85 1006.0
20260507122507 6 125 1.6 9.7 0.00 1.65 0.00 86 1005.9
20260507122405 7 123 1.6 8.0 0.00 1.65 0.00 86 1006.0
20260507122307 7 74 1.6 12.9 0.00 1.65 0.00 86 1005.9
20260507122206 7 71 3.2 12.9 0.00 1.65 0.00 85 1006.0
20260507122005 7 73 3.2 12.9 0.00 1.65 0.00 85 1005.9
20260507121905 7 67 3.2 12.9 0.00 1.65 0.00 86 1005.9
20260507121804 7 40 3.2 12.9 0.00 1.65 0.00 86 1006.0
20260507121726 7 39 3.2 12.9 0.00 1.65 0.00 85 1005.9
20260507121600 7 40 3.2 12.9 0.00 1.65 0.00 85 1006.0
20260507121445 7 50 3.2 12.9 0.00 1.65 0.00 86 1005.9
20260507121347 7 63 3.2 12.9 0.00 1.65 0.00 85 1005.9
20260507121247 7 97 1.6 11.3 0.00 1.65 0.00 83 1006.0
20260507121146 7 76 1.6 11.3 0.00 1.65 0.00 79 1006.0
20260507121046 7 16 1.6 11.3 0.00 1.65 0.00 81 1006.0
20260507120944 7 22 1.6 11.3 0.00 1.65 0.00 80 1006.0
20260507120844 7 90 1.6 11.3 0.00 1.65 0.00 80 1006.0
20260507120744 7 90 1.6 11.3 0.00 1.65 0.00 81 1006.0
20260507120717 7 355 1.6 12.9 0.00 1.65 0.00 81 1006.0
20260507120541 7 355 3.2 12.9 0.00 1.65 0.00 81 1006.0
20260507120435 7 0 3.2 12.9 0.00 1.65 0.00 81 1006.1
20260507120337 7 342 3.2 12.9 0.00 1.65 0.00 81 1006.0
20260507120240 7 0 3.2 12.9 0.00 1.65 0.00 82 1006.1
20260507120218 7 320 3.2 12.9 0.00 1.65 0.00 83 1006.1
20260507120034 7 5 3.2 12.9 0.00 1.65 0.00 82 1006.1
20260507115928 7 303 3.2 12.9 0.00 1.65 0.00 83 1006.0
20260507115827 7 5 3.2 12.9 0.00 1.65 0.00 81 1006.1
20260507115727 7 21 1.6 12.9 0.00 1.65 0.00 83 1006.1
20260507115627 7 355 1.6 11.3 0.00 1.65 0.00 81 1006.1
20260507115525 7 355 3.2 11.3 0.00 1.65 0.00 81 1006.1
20260507115420 7 5 3.2 11.3 0.00 1.65 0.00 81 1006.2
20260507115319 7 336 1.6 9.7 0.00 1.65 0.00 83 1006.1
20260507115219 7 5 1.6 9.7 0.00 1.65 0.00 82 1006.2
20260507115120 7 12 1.6 9.7 0.00 1.65 0.00 81 1006.2
20260507115019 7 21 1.6 9.7 0.00 1.65 0.00 81 1006.2
20260507114913 7 9 1.6 9.7 0.00 1.65 0.00 82 1006.2
20260507114812 7 355 1.6 9.7 0.00 1.65 0.00 82 1006.3
20260507114713 7 36 1.6 9.7 0.00 1.65 0.00 82 1006.3
20260507114513 7 24 0.0 8.0 0.00 1.65 0.00 84 1006.3
20260507114403 7 44 0.0 8.0 0.00 1.65 0.00 85 1006.3
20260507114305 7 319 0.0 8.0 0.00 1.65 0.00 84 1006.2
20260507114230 7 339 0.0 8.0 0.00 1.65 0.00 84 1006.2
20260507114209 7 334 0.0 8.0 0.00 1.65 0.00 83 1006.2
20260507114002 7 334 0.0 8.0 0.00 1.65 0.00 84 1006.2
20260507113903 7 62 0.0 6.4 0.00 1.65 0.00 83 1006.1
20260507113759 7 324 0.0 6.4 0.00 1.65 0.00 82 1006.1
20260507113659 7 323 1.6 6.4 0.00 1.65 0.00 83 1006.1
20260507113559 7 327 1.6 6.4 0.00 1.65 0.00 81 1006.1
20260507113456 7 327 1.6 6.4 0.00 1.65 0.00 82 1006.0
20260507113355 7 327 1.6 6.4 0.00 1.65 0.00 83 1006.0
20260507113253 7 350 1.6 6.4 0.00 1.65 0.00 82 1005.9
20260507113217 7 347 1.6 6.4 0.00 1.65 0.00 83 1006.0
20260507113053 7 5 1.6 6.4 0.00 1.65 0.00 84 1006.0
20260507112951 7 12 1.6 6.4 0.00 1.65 0.00 83 1006.0
20260507112836 6 19 1.6 6.4 0.00 1.65 0.00 84 1006.1
20260507112735 6 47 1.6 6.4 0.00 1.65 0.00 85 1006.1
20260507112637 6 11 1.6 6.4 0.00 1.65 0.00 84 1006.0
20260507112536 6 22 0.0 4.8 0.00 1.65 0.00 84 1006.0
20260507112436 6 0 0.0 4.8 0.00 1.65 0.00 84 1006.0
20260507112333 6 355 0.0 4.8 0.00 1.65 0.00 84 1006.0
20260507112233 6 338 0.0 4.8 0.00 1.65 0.00 85 1006.0
20260507112134 6 327 0.0 3.2 0.00 1.65 0.00 86 1006.0
20260507112031 6 5 0.0 3.2 0.00 1.65 0.00 86 1006.1
20260507111930 6 9 0.0 4.8 0.00 1.65 0.00 87 1006.0
20260507111835 6 10 0.0 4.8 0.00 1.65 0.00 87 1006.0
20260507111728 6 323 0.0 4.8 0.00 1.65 0.00 87 1006.0
20260507111627 6 327 0.0 4.8 0.00 1.65 0.00 87 1006.0
20260507111526 6 326 0.0 4.8 0.00 1.65 0.00 86 1006.0
20260507111424 6 323 0.0 4.8 0.00 1.65 0.00 87 1006.0
20260507111316 6 324 1.6 11.3 0.00 1.65 0.00 88 1006.0
20260507111214 6 322 1.6 11.3 0.00 1.65 0.00 86 1006.0
20260507111115 6 331 1.6 11.3 0.00 1.65 0.00 87 1006.0
20260507111014 6 349 1.6 11.3 0.00 1.65 0.00 87 1006.0
20260507110915 6 350 1.6 11.3 0.00 1.65 0.00 87 1006.0
20260507110809 6 350 1.6 11.3 0.00 1.65 0.00 86 1006.0
20260507110709 6 342 1.6 11.3 0.00 1.65 0.00 87 1006.0
20260507110611 6 335 1.6 11.3 0.00 1.65 0.00 88 1006.0
20260507110510 6 335 1.6 11.3 0.00 1.65 0.00 87 1006.0
20260507110409 6 54 1.6 11.3 0.00 1.65 0.00 87 1006.1
20260507110302 5 337 1.6 6.4 0.00 1.65 0.00 88 1006.0
20260507110201 5 337 1.6 6.4 0.00 1.65 0.00 88 1006.0
20260507110103 5 325 1.6 6.4 0.00 1.65 0.00 89 1006.0
20260507110001 5 274 1.6 6.4 0.00 1.65 0.00 90 1006.1
20260507105902 5 317 1.6 6.4 0.00 1.65 0.00 90 1006.0
20260507105751 5 317 1.6 16.1 0.00 1.65 0.00 90 1006.0
20260507105710 5 312 1.6 16.1 0.00 1.65 0.00 90 1006.1
20260507105650 5 311 1.6 16.1 0.00 1.65 0.00 90 1006.0
20260507105449 5 312 1.6 16.1 0.00 1.65 0.00 90 1006.1
20260507105422 5 283 1.6 16.1 0.00 1.65 0.00 91 1006.1
20260507105249 5 283 1.6 16.1 0.00 1.65 0.00 90 1006.1
20260507105211 5 283 1.6 16.1 0.00 1.65 0.00 90 1006.1
20260507105150 5 0 1.6 16.1 0.00 1.65 0.00 90 1006.1
20260507104944 5 13 1.6 16.1 0.00 1.65 0.00 90 1006.0
20260507104842 5 342 1.6 16.1 0.00 1.65 0.00 92 1006.0
20260507104738 5 0 1.6 12.9 0.00 1.65 0.00 92 1006.0
20260507104700 5 325 1.6 12.9 0.00 1.65 0.00 92 1006.0
20260507104536 5 319 1.6 12.9 0.00 1.65 0.00 92 1006.0
20260507104437 5 288 1.6 12.9 0.00 1.65 0.00 92 1006.0
20260507104337 5 317 1.6 12.9 0.00 1.65 0.00 92 1006.0
20260507104227 4 336 1.6 12.9 0.00 1.65 0.00 93 1006.0
20260507104125 4 337 1.6 12.9 0.00 1.65 0.00 93 1006.0
20260507104025 4 336 1.6 12.9 0.00 1.65 0.00 93 1006.0
20260507103925 4 340 1.6 12.9 0.00 1.65 0.00 93 1005.9
20260507103827 4 316 1.6 11.3 0.00 1.65 0.00 93 1005.9
20260507103723 4 14 0.0 6.4 0.00 1.65 0.00 94 1005.9
20260507103657 4 329 1.6 6.4 0.00 1.65 0.00 94 1005.8
20260507103521 3 355 0.0 4.8 0.00 1.65 0.00 95 1005.8
20260507103423 3 9 0.0 4.8 0.00 1.65 0.00 95 1005.8
20260507103320 3 9 0.0 4.8 0.00 1.65 0.00 95 1005.8
20260507103216 3 5 0.0 4.8 0.00 1.65 0.00 95 1005.8
20260507103155 3 355 0.0 4.8 0.00 1.65 0.00 95 1005.8
20260507103016 3 9 0.0 4.8 0.00 1.65 0.00 96 1005.8
20260507102916 3 320 0.0 4.8 0.00 1.65 0.00 96 1005.7
20260507102814 3 320 0.0 4.8 0.00 1.65 0.00 96 1005.7
20260507102714 3 320 0.0 4.8 0.00 1.65 0.00 96 1005.7
20260507102653 3 355 0.0 0.0 0.00 1.65 0.00 96 1005.6
20260507102504 3 355 0.0 0.0 0.00 1.65 0.00 96 1005.6
20260507102402 3 355 0.0 0.0 0.00 1.65 0.00 96 1005.6
20260507102301 3 355 0.0 0.0 0.00 1.65 0.00 96 1005.6
20260507102200 3 355 0.0 0.0 0.00 1.65 0.00 96 1005.6
20260507102058 3 355 0.0 0.0 0.00 1.65 0.00 96 1005.6
20260507101957 3 355 0.0 0.0 0.00 1.65 0.00 96 1005.6
20260507101857 3 355 0.0 0.0 0.00 1.65 0.00 96 1005.6
20260507101755 3 355 0.0 0.0 0.00 1.65 0.00 96 1005.7
20260507101656 3 355 0.0 0.0 0.00 1.65 0.00 96 1005.7
20260507101453 3 355 0.0 0.0 0.00 1.65 0.00 96 1005.7
20260507101354 3 355 0.0 0.0 0.00 1.65 0.00 95 1005.7
20260507101254 3 355 0.0 0.0 0.00 1.65 0.00 95 1005.7
20260507101154 3 355 0.0 3.2 0.00 1.65 0.00 95 1005.7
20260507101055 3 355 0.0 4.8 0.00 1.65 0.00 95 1005.7
20260507100949 3 355 0.0 4.8 0.00 1.65 0.00 96 1005.7
20260507100850 3 355 0.0 4.8 0.00 1.65 0.00 96 1005.8
20260507100749 3 355 0.0 4.8 0.00 1.65 0.00 96 1005.8
20260507100649 3 355 0.0 4.8 0.00 1.65 0.00 96 1005.8
20260507100447 2 355 0.0 4.8 0.00 1.65 0.00 96 1005.8
20260507100347 2 355 0.0 4.8 0.00 1.65 0.00 96 1005.7
20260507100248 2 355 0.0 4.8 0.00 1.65 0.00 96 1005.7
20260507100204 2 355 0.0 4.8 0.00 1.65 0.00 96 1005.6
20260507100142 2 311 0.0 3.2 0.00 1.65 0.00 96 1005.7
20260507095948 2 311 0.0 3.2 0.00 1.65 0.00 96 1005.7
20260507095849 2 311 0.0 3.2 0.00 1.65 0.00 96 1005.6
20260507095747 2 310 0.0 4.8 0.00 1.65 0.00 96 1005.7
20260507095647 2 314 0.0 4.8 0.00 1.65 0.00 96 1005.6
20260507095545 2 314 0.0 4.8 0.00 1.65 0.00 96 1005.6
20260507095445 2 314 0.0 4.8 0.00 1.65 0.00 96 1005.6
20260507095347 2 347 0.0 4.8 0.00 1.65 0.00 96 1005.5
20260507095246 2 344 0.0 4.8 0.00 1.65 0.00 96 1005.5
20260507095146 2 344 0.0 4.8 0.00 1.65 0.00 96 1005.6
20260507094941 2 344 0.0 4.8 0.00 1.65 0.00 96 1005.5
20260507094843 2 344 0.0 4.8 0.00 1.65 0.00 96 1005.6
20260507094741 2 345 0.0 4.8 0.00 1.65 0.00 96 1005.6
20260507094702 2 344 0.0 3.2 0.00 1.65 0.00 95 1005.6
20260507094641 2 19 0.0 0.0 0.00 1.65 0.00 95 1005.7
20260507094441 2 19 0.0 1.6 0.00 1.65 0.00 95 1005.7
20260507094341 2 19 0.0 1.6 0.00 1.65 0.00 95 1005.8
20260507094243 2 19 0.0 1.6 0.00 1.65 0.00 95 1005.8
20260507094142 2 19 0.0 8.0 0.00 1.65 0.00 95 1005.8
20260507093942 2 19 0.0 8.0 0.00 1.65 0.00 95 1005.9
20260507093843 2 19 0.0 8.0 0.00 1.65 0.00 95 1006.0
20260507093741 2 19 0.0 8.0 0.00 1.65 0.00 95 1005.9
20260507093642 2 19 0.0 8.0 0.00 1.65 0.00 95 1006.0
20260507093442 2 19 0.0 8.0 0.00 1.65 0.00 94 1006.0
20260507093341 2 19 0.0 8.0 0.00 1.65 0.00 94 1006.0
20260507093242 2 19 0.0 8.0 0.00 1.65 0.00 94 1006.0
20260507093142 2 322 0.0 1.6 0.00 1.65 0.00 94 1006.0
20260507093041 2 321 0.0 0.0 0.00 1.65 0.00 93 1006.1
20260507092942 2 321 0.0 4.8 0.00 1.65 0.00 93 1006.0
20260507092841 2 321 0.0 4.8 0.00 1.65 0.00 93 1006.0
20260507092743 2 321 0.0 4.8 0.00 1.65 0.00 93 1006.1
20260507092701 3 321 0.0 4.8 0.00 1.65 0.00 93 1006.0
20260507092640 3 321 0.0 4.8 0.00 1.65 0.00 93 1006.0
20260507092441 3 321 0.0 4.8 0.00 1.65 0.00 93 1006.0
20260507092343 3 321 0.0 4.8 0.00 1.65 0.00 93 1006.0
20260507092242 3 321 0.0 4.8 0.00 1.65 0.00 93 1006.0
20260507092142 3 321 0.0 4.8 0.00 1.65 0.00 93 1006.0
20260507091941 3 319 0.0 4.8 0.00 1.65 0.00 94 1006.0
20260507091841 3 306 0.0 0.0 0.00 1.65 0.00 94 1005.9
20260507091741 3 306 0.0 0.0 0.00 1.65 0.00 93 1005.9
20260507091641 3 306 0.0 0.0 0.00 1.65 0.00 93 1005.8
20260507091441 3 306 0.0 0.0 0.00 1.65 0.00 94 1005.9
20260507091342 3 306 0.0 1.6 0.00 1.65 0.00 94 1005.9
20260507091241 3 306 0.0 1.6 0.00 1.65 0.00 94 1005.8
20260507091143 3 306 0.0 1.6 0.00 1.65 0.00 94 1005.8
20260507090933 3 306 0.0 1.6 0.00 1.65 0.00 94 1005.8
20260507090832 3 306 0.0 1.6 0.00 1.65 0.00 94 1005.9
20260507090734 3 306 0.0 1.6 0.00 1.65 0.00 93 1005.9
20260507090634 3 306 0.0 1.6 0.00 1.65 0.00 93 1005.9
20260507090433 3 306 0.0 1.6 0.00 1.65 0.00 94 1005.9
20260507090334 3 296 0.0 0.0 0.00 1.65 0.00 94 1005.8
20260507090232 3 296 0.0 0.0 0.00 1.65 0.00 93 1005.8
20260507090133 3 296 0.0 0.0 0.00 1.65 0.00 93 1005.9
20260507085933 3 295 0.0 0.0 0.00 1.65 0.00 94 1005.9
20260507085905 3 295 0.0 0.0 0.00 1.65 0.00 94 1005.9
20260507085734 3 319 0.0 0.0 0.00 1.65 0.00 94 1005.9
20260507085656 3 323 0.0 0.0 0.00 1.65 0.00 94 1005.9
20260507085637 3 323 0.0 0.0 0.00 1.65 0.00 95 1005.9
20260507085434 3 323 0.0 0.0 0.00 1.65 0.00 95 1006.0
20260507085333 3 323 0.0 0.0 0.00 1.65 0.00 95 1006.0
20260507085234 3 304 0.0 0.0 0.00 1.65 0.00 95 1005.9
20260507085134 3 304 0.0 0.0 0.00 1.65 0.00 95 1005.9
20260507084933 3 304 0.0 3.2 0.00 1.65 0.00 95 1005.8
20260507084835 3 304 0.0 4.8 0.00 1.65 0.00 95 1005.8
20260507084733 3 304 0.0 4.8 0.00 1.65 0.00 95 1005.8
20260507084633 3 304 0.0 4.8 0.00 1.65 0.00 95 1005.8
20260507084432 3 315 0.0 4.8 0.00 1.65 0.00 96 1005.7
20260507084329 3 315 0.0 4.8 0.00 1.65 0.00 96 1005.7
20260507084230 3 315 0.0 4.8 0.00 1.65 0.00 96 1005.7
20260507084126 3 315 0.0 4.8 0.00 1.65 0.00 96 1005.6
20260507083923 3 315 0.0 4.8 0.00 1.65 0.00 97 1005.7
20260507083822 3 315 0.0 4.8 0.00 1.65 0.00 97 1005.6
20260507083721 3 315 0.0 4.8 0.00 1.65 0.00 97 1005.7
20260507083617 3 325 0.0 0.0 0.00 1.65 0.00 97 1005.7
20260507083416 3 325 0.0 0.0 0.00 1.65 0.00 97 1005.7
20260507083314 3 325 0.0 0.0 0.00 1.65 0.00 97 1005.7
20260507083211 3 325 0.0 0.0 0.00 1.65 0.00 97 1005.7
20260507083112 3 325 0.0 0.0 0.00 1.65 0.00 97 1005.7
20260507082907 3 325 0.0 1.6 0.00 1.65 0.00 97 1005.7
20260507082818 3 325 0.0 1.6 0.00 1.65 0.00 97 1005.7
20260507082757 3 325 0.0 4.8 0.00 1.65 0.00 97 1005.7
20260507082606 3 325 0.0 4.8 0.00 1.65 0.00 97 1005.7
20260507082350 3 325 0.0 4.8 0.00 1.65 0.00 97 1005.7
20260507082323 3 325 0.0 4.8 0.00 1.65 0.00 97 1005.7
20260507082149 3 325 0.0 4.8 0.00 1.65 0.00 97 1005.7
20260507082115 3 325 0.0 4.8 0.00 1.65 0.00 97 1005.7
20260507082054 3 325 0.0 4.8 0.00 1.65 0.00 97 1005.7
20260507081847 3 325 0.0 4.8 0.00 1.65 0.00 97 1005.7
20260507081748 3 325 0.0 3.2 0.00 1.65 0.00 97 1005.7
20260507081649 3 325 0.0 3.2 0.00 1.65 0.00 97 1005.7
20260507081546 3 325 0.0 3.2 0.00 1.65 0.00 97 1005.7
20260507081342 3 325 0.0 3.2 0.00 1.65 0.00 97 1005.7
20260507081242 3 326 0.0 3.2 0.00 1.65 0.00 97 1005.7
20260507081141 3 325 0.0 3.2 0.00 1.65 0.00 97 1005.7
20260507081104 3 325 0.0 3.2 0.00 1.65 0.00 97 1005.7
20260507081042 3 326 0.0 0.0 0.00 1.65 0.00 97 1005.7
20260507080829 3 327 0.0 0.0 0.00 1.65 0.00 97 1005.7
20260507080727 3 327 0.0 0.0 0.00 1.65 0.00 97 1005.7
20260507080627 3 327 0.0 0.0 0.00 1.65 0.00 97 1005.6
20260507080528 3 327 0.0 0.0 0.00 1.65 0.00 97 1005.7
20260507080329 3 327 0.0 0.0 0.00 1.65 0.00 97 1005.7
20260507080226 3 327 0.0 0.0 0.00 1.65 0.00 97 1005.7
20260507080125 3 327 0.0 0.0 0.00 1.65 0.00 97 1005.8
20260507080024 3 327 0.0 0.0 0.00 1.65 0.00 97 1005.8
20260507075821 3 327 0.0 0.0 0.00 1.65 0.00 97 1005.7
20260507075720 3 327 0.0 0.0 0.00 1.65 0.00 97 1005.7
20260507075617 3 327 0.0 0.0 0.00 1.65 0.00 97 1005.7
20260507075540 3 327 0.0 0.0 0.00 1.65 0.00 97 1005.7
20260507075519 3 327 0.0 0.0 0.00 1.65 0.00 97 1005.7
20260507075307 3 327 0.0 0.0 0.00 1.65 0.00 97 1005.7
20260507075205 3 327 0.0 0.0 0.00 1.65 0.00 97 1005.6
20260507075106 3 327 0.0 0.0 0.00 1.65 0.00 97 1005.6
20260507075003 3 327 0.0 0.0 0.00 1.65 0.00 97 1005.5
20260507074759 3 327 0.0 0.0 0.00 1.65 0.00 97 1005.5
20260507074655 3 327 0.0 0.0 0.00 1.65 0.00 97 1005.5
20260507074555 4 327 0.0 0.0 0.00 1.65 0.00 97 1005.4
20260507074455 3 327 0.0 0.0 0.00 1.65 0.00 97 1005.4
20260507074255 4 327 0.0 0.0 0.00 1.65 0.00 97 1005.4
20260507074154 4 327 0.0 0.0 0.00 1.65 0.00 97 1005.3
20260507074053 4 327 0.0 0.0 0.00 1.65 0.00 98 1005.1
20260507074016 4 327 0.0 3.2 0.00 1.65 0.00 97 1005.1
20260507073953 4 327 0.0 3.2 0.00 1.65 0.00 97 1005.1
20260507073743 4 327 0.0 8.0 0.00 1.65 0.00 97 1005.1
20260507073644 4 327 0.0 8.0 0.00 1.65 0.00 97 1005.1
20260507073544 4 327 0.0 8.0 0.00 1.65 0.00 97 1005.0
20260507073441 4 327 0.0 8.0 0.00 1.65 0.00 97 1004.9
20260507073241 4 327 0.0 8.0 0.00 1.65 0.00 97 1004.9
20260507073138 4 327 0.0 8.0 0.00 1.65 0.00 97 1004.9
20260507073038 4 327 0.0 8.0 0.00 1.65 0.00 97 1004.8
20260507072936 4 268 0.0 8.0 0.00 1.65 0.00 97 1004.8
20260507072734 4 289 0.0 3.2 0.00 1.65 0.00 98 1004.9
20260507072632 4 289 0.0 3.2 0.00 1.65 0.00 98 1004.9
20260507072530 4 289 0.0 3.2 0.00 1.65 0.00 98 1004.9
20260507072430 4 289 0.0 3.2 0.00 1.65 0.00 98 1004.9
20260507072217 4 289 0.0 3.2 0.00 1.65 0.00 98 1005.0
20260507072118 4 289 0.0 3.2 0.00 1.65 0.00 98 1004.9
20260507072017 4 288 0.0 4.8 0.00 1.65 0.00 98 1004.8
20260507071916 4 288 0.0 4.8 0.00 1.65 0.00 97 1004.8
20260507071708 4 288 1.6 4.8 0.00 1.65 0.00 97 1004.8
20260507071609 4 289 1.6 4.8 0.00 1.65 0.00 97 1004.8
20260507071508 4 289 1.6 4.8 0.00 1.65 0.00 97 1004.8
20260507071433 4 289 1.6 4.8 0.00 1.65 0.00 97 1004.7
20260507071411 4 289 1.6 4.8 0.00 1.65 0.00 97 1004.8
20260507071205 4 289 1.6 4.8 0.00 1.65 0.00 97 1004.7
20260507071102 4 289 3.2 4.8 0.00 1.65 0.00 97 1004.7
20260507071002 4 289 3.2 6.4 0.00 1.65 0.00 97 1004.8
20260507070928 4 289 3.2 6.4 0.00 1.65 0.00 97 1004.8
20260507070905 4 289 3.2 6.4 0.00 1.65 0.00 97 1004.8
20260507070655 4 289 3.2 6.4 0.00 1.65 0.00 97 1004.9
20260507070555 4 289 3.2 6.4 0.00 1.65 0.00 97 1004.9
20260507070455 4 292 1.6 6.4 0.00 1.65 0.00 97 1004.9
20260507070354 4 292 3.2 6.4 0.00 1.65 0.00 97 1005.0
20260507070148 4 281 3.2 6.4 0.00 1.65 0.00 97 1005.0
20260507070046 4 280 1.6 6.4 0.00 1.65 0.00 97 1005.0
20260507065945 4 316 1.6 4.8 0.00 1.65 0.00 97 1005.0
20260507065846 4 317 1.6 4.8 0.00 1.65 0.00 97 1005.0
20260507065641 4 236 1.6 6.4 0.00 1.65 0.00 97 1005.0
20260507065540 4 301 1.6 6.4 0.00 1.65 0.00 97 1005.0
20260507065440 4 301 1.6 6.4 0.00 1.65 0.00 97 1005.0
20260507065340 4 301 1.6 6.4 0.00 1.65 0.00 97 1005.0
20260507065128 4 296 1.6 6.4 0.00 1.65 0.00 97 1005.1
20260507065025 4 296 1.6 8.0 0.00 1.65 0.00 97 1005.0
20260507064925 4 299 1.6 8.0 0.00 1.65 0.00 97 1005.0
20260507064826 4 300 3.2 8.0 0.00 1.65 0.00 97 1005.0
20260507064623 4 272 3.2 8.0 0.00 1.65 0.00 97 1005.0
20260507064522 4 275 3.2 8.0 0.00 1.65 0.00 97 1005.0
20260507064423 4 273 3.2 8.0 0.00 1.65 0.00 97 1005.0
20260507064322 4 275 3.2 8.0 0.00 1.65 0.00 97 1005.1
20260507064112 4 296 1.6 8.0 0.00 1.65 0.00 97 1005.1
20260507064013 4 302 1.6 6.4 0.00 1.65 0.00 97 1005.1
20260507063914 4 286 1.6 6.4 0.00 1.65 0.00 97 1005.1
20260507063812 4 293 1.6 6.4 0.00 1.65 0.00 97 1005.1
20260507063606 4 291 1.6 6.4 0.00 1.65 0.00 97 1005.1
20260507063502 4 291 1.6 6.4 0.00 1.65 0.00 97 1005.3
20260507063402 4 291 1.6 6.4 0.00 1.65 0.00 97 1005.3
20260507063331 4 267 1.6 6.4 0.00 1.65 0.00 97 1005.3
20260507063308 4 289 1.6 4.8 0.00 1.65 0.00 97 1005.4
20260507063058 4 289 1.6 4.8 0.00 1.65 0.00 97 1005.4
20260507062956 4 289 1.6 6.4 0.00 1.65 0.00 97 1005.3
20260507062858 4 289 1.6 6.4 0.00 1.65 0.00 98 1005.1
20260507062758 4 290 1.6 6.4 0.00 1.65 0.00 98 1005.0
20260507062554 4 296 1.6 6.4 0.00 1.65 0.00 98 1004.9
20260507062452 4 296 1.6 6.4 0.00 1.65 0.00 98 1004.8
20260507062352 4 302 1.6 6.4 0.00 1.65 0.00 98 1004.8
20260507062250 4 304 1.6 6.4 0.00 1.65 0.00 98 1004.7
20260507062038 4 294 1.6 6.4 0.00 1.65 0.00 98 1004.9
20260507061938 4 291 1.6 6.4 0.00 1.65 0.00 98 1005.0
20260507061838 5 288 1.6 4.8 0.00 1.65 0.00 98 1005.0
20260507061738 5 281 1.6 4.8 0.00 1.65 0.00 98 1004.9
20260507061536 5 285 1.6 8.0 0.00 1.65 0.00 98 1005.1
20260507061435 5 285 1.6 8.0 0.00 1.65 0.00 98 1005.3
20260507061334 5 283 1.6 8.0 0.00 1.65 0.00 98 1005.4
20260507061234 5 292 1.6 8.0 0.00 1.65 0.00 98 1005.3
20260507061031 5 313 1.6 8.0 0.00 1.65 0.00 98 1005.1
20260507060928 5 313 1.6 8.0 0.00 1.65 0.00 98 1005.1
20260507060828 5 325 1.6 8.0 0.00 1.65 0.00 98 1005.1
20260507060728 5 325 1.6 8.0 0.00 1.65 0.00 98 1005.4
20260507060516 5 275 3.2 6.4 0.00 1.65 0.00 98 1005.4
20260507060414 5 273 3.2 6.4 0.00 1.65 0.00 98 1005.5
20260507060316 5 273 3.2 6.4 0.00 1.65 0.00 98 1005.5
20260507060214 5 275 3.2 6.4 0.00 1.65 0.00 98 1005.5
20260507060010 5 283 3.2 8.0 0.00 1.65 0.00 98 1005.4
20260507055909 5 284 3.2 8.0 0.00 1.65 0.00 98 1005.4
20260507055809 5 286 3.2 8.0 0.00 1.65 0.00 98 1005.3
20260507055710 5 277 3.2 8.0 0.00 1.65 0.00 98 1005.1
20260507055503 5 296 1.6 8.0 0.00 1.65 0.00 98 1004.9
20260507055404 5 296 1.6 8.0 0.00 1.65 0.00 98 1004.9
20260507055306 5 290 1.6 8.0 0.00 1.65 0.00 98 1005.0
20260507055203 5 285 1.6 8.0 0.00 1.65 0.00 98 1005.0
20260507054952 5 286 3.2 8.0 0.00 1.65 0.00 99 1005.0
20260507054853 5 273 3.2 8.0 0.00 1.65 0.00 98 1005.3
20260507054752 5 278 3.2 11.3 0.00 1.65 0.00 99 1005.3
20260507054652 5 271 3.2 11.3 0.00 1.65 0.00 99 1005.1
20260507054442 5 315 4.8 11.3 0.00 1.65 0.00 99 1005.1
20260507054343 5 288 4.8 11.3 0.00 1.65 0.00 99 1005.0
20260507054244 5 271 3.2 11.3 0.00 1.65 0.00 99 1005.0
20260507054142 5 296 3.2 11.3 0.00 1.65 0.00 99 1005.0
20260507053938 5 290 3.2 11.3 0.00 1.65 0.00 99 1005.1
20260507053838 5 299 1.6 11.3 0.00 1.65 0.00 99 1005.1
20260507053738 5 289 1.6 9.7 0.00 1.65 0.00 99 1005.1
20260507053704 5 290 1.6 9.7 0.00 1.65 0.00 98 1005.1
20260507053642 5 284 1.6 9.7 0.00 1.65 0.00 99 1005.0
20260507053430 5 286 0.0 6.4 0.00 1.65 0.00 98 1005.0
20260507053332 5 289 0.0 6.4 0.00 1.65 0.00 98 1005.0
20260507053232 5 281 0.0 4.8 0.00 1.65 0.00 98 1005.0
20260507053128 5 281 0.0 4.8 0.00 1.65 0.00 98 1005.0
20260507052922 5 277 0.0 4.8 0.00 1.65 0.00 98 1005.1
20260507052822 5 277 0.0 4.8 0.00 1.65 0.00 98 1005.1
20260507052722 5 276 0.0 4.8 0.00 1.65 0.00 98 1005.1
20260507052647 5 277 0.0 4.8 0.00 1.65 0.00 98 1005.3
20260507052626 5 23 0.0 3.2 0.00 1.65 0.00 98 1005.1
20260507052416 5 324 0.0 9.7 0.00 1.65 0.00 98 1005.4
20260507052316 5 324 0.0 9.7 0.00 1.65 0.00 98 1005.4
20260507052216 5 324 1.6 9.7 0.00 1.65 0.00 98 1005.4
20260507052116 5 325 1.6 9.7 0.00 1.65 0.00 98 1005.4
20260507051904 5 325 1.6 9.7 0.00 1.65 0.00 98 1005.4
20260507051839 5 325 1.6 9.7 0.00 1.65 0.00 98 1005.4
20260507051706 5 324 1.6 9.7 0.00 1.65 0.00 98 1005.4
20260507051628 5 325 1.6 9.7 0.00 1.65 0.00 98 1005.4
20260507051606 5 13 1.6 9.7 0.00 1.65 0.00 98 1005.3
20260507051402 5 9 1.6 9.7 0.00 1.65 0.00 98 1005.1
20260507051258 5 316 1.6 9.7 0.00 1.65 0.00 98 1005.1
20260507051156 5 144 1.6 9.7 0.00 1.65 0.00 99 1005.1
20260507051121 5 322 1.6 9.7 0.00 1.65 0.00 99 1005.0
20260507051100 5 322 1.6 9.7 0.00 1.65 0.00 99 1005.1
20260507050854 5 322 1.6 9.7 0.00 1.65 0.00 99 1005.0
20260507050754 5 322 1.6 9.7 0.00 1.65 0.00 99 1005.0
20260507050653 5 331 1.6 9.7 0.00 1.65 0.00 99 1005.1
20260507050551 5 331 0.0 9.7 0.00 1.65 0.00 99 1005.0
20260507050343 5 76 1.6 9.7 0.00 1.65 0.00 99 1005.0
20260507050244 5 255 0.0 9.7 0.00 1.65 0.00 99 1004.9
20260507050144 5 333 0.0 9.7 0.00 1.65 0.00 99 1004.9
20260507050105 5 333 0.0 9.7 0.00 1.65 0.00 99 1004.9
20260507050044 5 199 0.0 9.7 0.00 1.65 0.00 99 1004.8
20260507045839 5 186 0.0 9.7 0.00 1.65 0.00 99 1004.9
20260507045738 5 186 0.0 9.7 0.00 1.65 0.00 99 1005.0
20260507045638 5 186 0.0 9.7 0.00 1.65 0.00 99 1005.1
20260507045534 5 184 0.0 9.7 0.00 1.65 0.00 99 1005.1
20260507045333 5 238 0.0 6.4 0.00 1.65 0.00 99 1005.3
20260507045232 5 238 0.0 6.4 0.00 1.65 0.00 99 1005.3
20260507045128 5 235 0.0 6.4 0.00 1.65 0.00 99 1005.1
20260507045030 5 235 0.0 6.4 0.00 1.65 0.00 99 1005.1
20260507044814 5 332 0.0 0.0 0.00 1.65 0.00 99 1005.0
20260507044712 5 332 0.0 0.0 0.00 1.65 0.00 99 1005.0
20260507044613 5 332 0.0 0.0 0.00 1.65 0.00 99 1004.9
20260507044512 5 332 0.0 0.0 0.00 1.65 0.00 99 1004.9
20260507044309 5 332 0.0 0.0 0.00 1.65 0.00 99 1004.9
20260507044206 5 332 0.0 0.0 0.00 1.65 0.00 99 1004.9
20260507044108 5 332 0.0 0.0 0.00 1.65 0.00 99 1004.9
20260507044006 5 332 0.0 0.0 0.00 1.65 0.00 99 1004.9
20260507043804 5 332 0.0 0.0 0.00 1.65 0.00 99 1004.8
20260507043706 5 332 0.0 0.0 0.00 1.65 0.00 99 1004.8
20260507043604 5 332 0.0 0.0 0.00 1.65 0.00 99 1004.8
20260507043530 5 332 0.0 0.0 0.00 1.65 0.00 99 1004.8
20260507043506 5 332 0.0 0.0 0.00 1.65 0.00 99 1004.8
20260507043256 5 332 0.0 0.0 0.00 1.65 0.00 99 1004.7
20260507043154 5 332 0.0 8.0 0.00 1.65 0.00 99 1004.6
20260507043056 5 332 0.0 8.0 0.00 1.65 0.00 99 1004.5
20260507042952 5 332 0.0 8.0 0.00 1.65 0.00 99 1004.6
20260507042751 5 332 0.0 8.0 0.00 1.65 0.00 99 1004.5
20260507042649 5 332 0.0 8.0 0.00 1.65 0.00 99 1004.5
20260507042549 5 332 1.6 8.0 0.00 1.65 0.00 99 1004.5
20260507042446 5 332 1.6 8.0 0.00 1.65 0.00 98 1004.5
20260507042245 5 332 1.6 8.0 0.00 1.65 0.00 98 1004.4
20260507042143 5 332 1.6 8.0 0.00 1.65 0.00 98 1004.4
20260507042042 5 336 3.2 11.3 0.00 1.65 0.00 98 1004.3
20260507041941 5 0 3.2 14.5 0.00 1.65 0.00 98 1004.3
20260507041729 5 15 3.2 14.5 0.00 1.65 0.00 98 1004.4
20260507041628 5 331 3.2 14.5 0.00 1.65 0.00 98 1004.4
20260507041529 5 343 3.2 14.5 0.00 1.65 0.00 98 1004.4
20260507041426 5 319 3.2 14.5 0.00 1.65 0.00 98 1004.4
20260507041222 5 320 3.2 14.5 0.00 1.65 0.00 98 1004.4
20260507041122 5 5 3.2 14.5 0.00 1.65 0.00 98 1004.4
20260507041020 5 315 1.6 14.5 0.00 1.65 0.00 98 1004.4
20260507040921 5 312 1.6 8.0 0.00 1.65 0.00 98 1004.6
20260507040714 5 36 1.6 12.9 0.00 1.65 0.00 98 1004.7
20260507040612 5 294 1.6 12.9 0.00 1.65 0.00 99 1004.8
20260507040513 5 294 1.6 12.9 0.00 1.65 0.00 99 1004.8
20260507040414 5 294 3.2 12.9 0.00 1.65 0.00 98 1004.9
20260507040205 5 335 3.2 12.9 0.00 1.65 0.00 98 1005.0
20260507040104 5 346 3.2 12.9 0.00 1.65 0.00 98 1004.9
20260507040005 5 355 3.2 12.9 0.00 1.65 0.00 98 1005.0
20260507035904 5 348 3.2 12.9 0.03 1.65 1.65 98 1004.9
20260507035701 5 5 3.2 11.3 0.03 1.65 1.65 99 1004.8
20260507035601 5 18 1.6 11.3 0.03 1.65 1.65 99 1005.0
20260507035500 5 285 1.6 11.3 0.03 1.65 1.65 99 1005.0
20260507035400 5 261 1.6 11.3 0.03 1.65 1.65 99 1005.0
20260507035153 5 5 1.6 11.3 0.03 1.65 1.65 99 1005.1
20260507035052 5 326 1.6 11.3 0.03 1.65 1.65 99 1005.1
20260507034953 5 289 1.6 11.3 0.03 1.65 1.65 99 1005.1
20260507034853 5 288 1.6 11.3 0.03 1.65 1.65 99 1005.1
20260507034643 5 289 1.6 11.3 0.03 1.65 1.65 99 1005.1
20260507034541 5 284 3.2 11.3 0.03 1.65 1.65 99 1005.1
20260507034439 5 261 3.2 11.3 0.03 1.65 1.65 99 1005.1
20260507034341 5 309 3.2 8.0 0.03 1.65 1.65 99 1005.1
20260507034132 5 294 1.6 8.0 0.03 1.65 1.65 99 1005.1
20260507034032 5 294 1.6 8.0 0.03 1.65 1.65 99 1005.1
20260507033932 5 311 1.6 8.0 0.03 1.65 1.65 99 1005.1
20260507033833 5 311 1.6 8.0 0.03 1.65 1.65 99 1005.1
20260507033631 5 298 1.6 8.0 0.03 1.65 1.65 99 1004.9
20260507033530 5 296 0.0 8.0 0.03 1.65 1.65 99 1004.9
20260507033430 5 295 0.0 4.8 0.03 1.65 1.65 99 1004.9
20260507033329 5 296 0.0 4.8 0.03 1.65 1.65 99 1004.9
20260507033118 5 291 1.6 4.8 0.03 1.65 1.65 99 1004.9
20260507033016 5 291 1.6 4.8 0.03 1.65 1.65 99 1004.9
20260507032917 5 291 1.6 8.0 0.03 1.65 1.65 99 1004.9
20260507032817 5 294 1.6 8.0 0.03 1.65 1.65 99 1004.9
20260507032612 5 294 3.2 14.5 0.03 1.65 1.65 99 1004.9
20260507032511 5 294 3.2 14.5 0.03 1.65 1.65 99 1004.9
20260507032411 5 294 3.2 14.5 0.03 1.65 1.65 98 1004.9
20260507032311 5 294 3.2 14.5 0.03 1.65 1.65 98 1004.9
20260507032103 5 333 3.2 14.5 0.03 1.65 1.65 98 1004.9
20260507032005 5 323 4.8 14.5 0.03 1.65 1.65 98 1004.8
20260507031905 5 301 3.2 14.5 0.03 1.65 1.65 98 1004.8
20260507031804 5 277 3.2 14.5 0.03 1.65 1.65 98 1004.8
20260507031553 5 323 3.2 14.5 0.03 1.65 1.65 98 1004.8
20260507031455 5 349 3.2 14.5 0.03 1.65 1.65 98 1004.8
20260507031353 5 304 3.2 14.5 0.03 1.65 1.65 98 1004.8
20260507031252 5 313 3.2 14.5 0.03 1.65 1.65 98 1004.7
20260507031050 5 296 3.2 14.5 0.03 1.65 1.65 98 1004.7
20260507030948 5 308 3.2 12.9 0.03 1.65 1.65 98 1004.7
20260507030849 5 296 3.2 22.5 0.03 1.65 1.65 98 1004.8
20260507030746 5 263 3.2 22.5 0.03 1.65 1.65 98 1004.8
20260507030541 6 317 4.8 22.5 0.03 1.65 1.65 98 1005.0
20260507030438 6 309 4.8 22.5 0.03 1.65 1.65 98 1004.9
20260507030339 5 342 4.8 22.5 0.03 1.65 1.65 98 1004.9
20260507030238 6 293 6.4 22.5 0.03 1.65 1.65 98 1004.8
20260507030031 6 267 6.4 22.5 0.03 1.65 1.65 98 1004.9
20260507025932 6 5 6.4 19.3 0.00 1.63 1.63 98 1004.9
20260507025832 6 265 6.4 19.3 0.00 1.63 1.63 97 1004.9
20260507025731 6 301 6.4 19.3 0.03 1.63 1.63 97 1004.9
20260507025524 6 321 4.8 19.3 0.03 1.63 1.63 98 1005.0
20260507025423 6 307 4.8 19.3 0.03 1.63 1.63 98 1005.0
20260507025323 6 298 4.8 19.3 0.03 1.63 1.63 98 1005.1
20260507025223 6 310 4.8 19.3 0.03 1.63 1.63 98 1005.1
20260507025017 6 319 4.8 19.3 0.03 1.63 1.63 98 1005.1
20260507024917 6 309 4.8 19.3 0.03 1.63 1.63 98 1005.3
20260507024817 6 323 4.8 19.3 0.03 1.63 1.63 98 1005.1
20260507024717 6 307 4.8 19.3 0.03 1.63 1.63 98 1005.1
20260507024505 6 327 4.8 19.3 0.03 1.63 1.63 98 1005.1
20260507024441 6 304 4.8 19.3 0.03 1.63 1.63 98 1005.1
20260507024303 6 342 4.8 12.9 0.03 1.63 1.63 98 1005.0
20260507024230 6 300 4.8 12.9 0.03 1.63 1.63 98 1005.0
20260507024207 6 323 4.8 17.7 0.03 1.63 1.63 98 1005.0
20260507023959 6 260 4.8 17.7 0.03 1.63 1.63 98 1004.9
20260507023857 6 319 4.8 17.7 0.03 1.63 1.63 98 1004.9
20260507023757 6 27 4.8 17.7 0.03 1.63 1.63 98 1005.0
20260507023659 6 307 6.4 17.7 0.03 1.63 1.63 98 1005.0
20260507023451 6 284 4.8 17.7 0.05 1.63 1.63 98 1005.0
20260507023349 6 319 4.8 17.7 0.05 1.63 1.63 98 1005.0
20260507023251 6 279 4.8 17.7 0.05 1.63 1.63 98 1005.0
20260507022941 6 287 4.8 17.7 0.05 1.63 1.63 98 1005.0
20260507022840 6 288 4.8 17.7 0.05 1.63 1.63 98 1005.0
20260507022740 6 268 4.8 17.7 0.05 1.63 1.63 98 1005.0
20260507022641 6 306 4.8 17.7 0.05 1.63 1.63 98 1004.8
20260507022436 6 264 4.8 17.7 0.08 1.63 1.63 98 1004.9
20260507022335 6 336 4.8 16.1 0.08 1.63 1.63 98 1004.8
20260507022235 6 295 4.8 17.7 0.08 1.63 1.63 98 1004.8
20260507022136 6 290 4.8 17.7 0.08 1.63 1.63 98 1004.8
20260507021930 6 344 4.8 19.3 0.08 1.63 1.63 98 1004.8
20260507021828 6 306 4.8 19.3 0.08 1.63 1.63 98 1004.8
20260507021729 6 287 4.8 19.3 0.08 1.63 1.63 98 1004.9
20260507021627 6 293 4.8 19.3 0.08 1.63 1.63 98 1004.8
20260507021421 6 281 4.8 19.3 0.08 1.63 1.63 98 1004.8
20260507021319 6 258 4.8 19.3 0.08 1.63 1.63 98 1004.8
20260507021219 6 288 3.2 19.3 0.08 1.63 1.63 98 1004.9
20260507021118 6 297 4.8 19.3 0.08 1.63 1.63 98 1004.8
20260507020914 6 289 3.2 19.3 0.10 1.63 1.63 98 1004.8
20260507020811 6 294 3.2 19.3 0.10 1.63 1.63 98 1004.8
20260507020713 6 317 3.2 19.3 0.10 1.63 1.63 98 1004.8
20260507020613 6 10 3.2 19.3 0.10 1.63 1.63 98 1004.8
20260507020409 6 287 3.2 19.3 0.10 1.63 1.63 98 1004.9
20260507020305 6 348 1.6 19.3 0.10 1.63 1.63 98 1004.7
20260507020207 6 325 1.6 19.3 0.10 1.63 1.63 98 1004.9
20260507020105 7 355 1.6 14.5 0.10 1.63 1.63 98 1004.9
20260507015851 7 13 1.6 14.5 0.10 1.63 1.63 99 1004.9
20260507015753 7 296 0.0 9.7 0.08 1.60 1.63 99 1004.8
20260507015653 7 283 0.0 9.7 0.08 1.60 1.60 99 1004.9
20260507015618 7 281 0.0 9.7 0.08 1.60 1.60 99 1004.7
20260507015556 7 281 0.0 9.7 0.08 1.60 1.60 99 1004.8
20260507015353 7 281 0.0 9.7 0.08 1.60 1.60 99 1004.9
20260507015250 7 280 1.6 9.7 0.08 1.60 1.60 99 1004.9
20260507015151 7 279 1.6 9.7 0.08 1.60 1.60 99 1004.9
20260507015048 7 279 0.0 9.7 0.08 1.60 1.60 99 1004.9
20260507014844 7 290 0.0 6.4 0.10 1.60 1.60 99 1004.9
20260507014744 7 290 1.6 6.4 0.10 1.60 1.60 99 1005.0
20260507014641 7 290 0.0 6.4 0.10 1.60 1.60 99 1004.9
20260507014543 7 290 0.0 6.4 0.10 1.60 1.60 99 1004.9
20260507014329 7 290 0.0 6.4 0.10 1.60 1.60 99 1004.8
20260507014230 7 290 0.0 6.4 0.10 1.60 1.60 99 1004.8
20260507014129 7 313 0.0 6.4 0.10 1.60 1.60 99 1004.8
20260507014030 7 313 0.0 6.4 0.10 1.60 1.60 99 1004.7
20260507013823 7 300 0.0 4.8 0.10 1.60 1.60 99 1004.7
20260507013724 7 306 0.0 4.8 0.10 1.60 1.60 99 1004.7
20260507013624 7 306 0.0 4.8 0.08 1.57 1.60 99 1004.8
20260507013524 7 306 0.0 4.8 0.08 1.57 1.57 99 1004.8
20260507013320 7 306 0.0 12.9 0.08 1.57 1.57 99 1004.7
20260507013217 7 303 1.6 12.9 0.08 1.57 1.57 99 1004.7
20260507013118 7 303 1.6 12.9 0.08 1.57 1.57 99 1004.7
20260507013018 7 303 1.6 12.9 0.08 1.57 1.57 99 1004.7
20260507012807 8 321 0.0 12.9 0.08 1.57 1.57 99 1004.5
20260507012603 8 331 0.0 12.9 0.08 1.57 1.57 99 1004.4
20260507012531 8 306 0.0 12.9 0.05 1.55 1.57 99 1004.4
20260507012508 8 304 0.0 4.8 0.05 1.55 1.55 99 1004.4
20260507012301 8 300 0.0 4.8 0.05 1.55 1.55 99 1004.4
20260507012158 8 275 0.0 1.6 0.05 1.55 1.55 99 1004.3
20260507012058 8 270 0.0 1.6 0.05 1.55 1.55 99 1004.2
20260507012024 8 269 0.0 1.6 0.05 1.55 1.55 99 1004.2
20260507011858 8 234 0.0 0.0 0.05 1.55 1.55 99 1004.3
20260507011758 8 234 0.0 3.2 0.05 1.55 1.55 99 1004.4
20260507011657 8 234 0.0 3.2 0.05 1.55 1.55 99 1004.4
20260507011553 8 233 0.0 3.2 0.05 1.55 1.55 99 1004.4
20260507011453 8 232 0.0 3.2 0.05 1.55 1.55 99 1004.5
20260507011353 8 232 0.0 3.2 0.05 1.55 1.55 99 1004.4
20260507011247 8 233 0.0 3.2 0.05 1.55 1.55 99 1004.4
20260507011147 8 228 0.0 3.2 0.05 1.55 1.55 99 1004.3
20260507011047 8 311 0.0 3.2 0.03 1.52 1.55 99 1004.3
20260507010943 8 322 0.0 3.2 0.03 1.52 1.52 99 1004.2
20260507010843 8 33 0.0 3.2 0.03 1.52 1.52 99 1004.2
20260507010742 8 311 0.0 1.6 0.03 1.52 1.52 99 1004.2
20260507010639 8 311 0.0 1.6 0.03 1.52 1.52 99 1004.2
20260507010537 8 311 0.0 1.6 0.03 1.52 1.52 99 1004.2
20260507010439 9 311 0.0 1.6 0.03 1.52 1.52 99 1004.2
20260507010338 9 311 0.0 0.0 0.03 1.52 1.52 99 1004.2
20260507010236 9 311 0.0 0.0 0.03 1.52 1.52 99 1004.1
20260507010134 9 311 0.0 0.0 0.03 1.52 1.52 99 1004.1
20260507010033 9 311 0.0 0.0 0.03 1.52 1.52 99 1004.2
20260507005933 9 311 0.0 0.0 0.03 1.52 1.52 99 1004.3
20260507005830 9 310 0.0 0.0 0.03 1.52 1.52 99 1004.2
20260507005719 9 310 0.0 0.0 0.03 1.52 1.52 99 1004.2
20260507005616 9 310 0.0 0.0 0.03 1.52 1.52 99 1004.2
20260507005515 9 310 0.0 0.0 0.03 1.52 1.52 99 1004.1
20260507005415 9 310 0.0 0.0 0.03 1.52 1.52 99 1004.1
20260507005317 9 311 0.0 0.0 0.03 1.52 1.52 99 1004.1
20260507005213 9 301 0.0 0.0 0.03 1.52 1.52 99 1004.2
20260507005113 10 301 0.0 0.0 0.03 1.52 1.52 99 1004.2
20260507005015 10 301 0.0 0.0 0.03 1.52 1.52 99 1004.3
20260507004911 10 301 0.0 0.0 0.03 1.52 1.52 99 1004.4
20260507004811 10 301 0.0 0.0 0.00 1.50 1.52 99 1004.3
20260507004711 10 301 0.0 0.0 0.00 1.50 1.50 99 1004.4
20260507004608 10 301 0.0 0.0 0.00 1.50 1.50 99 1004.4
20260507004524 10 301 0.0 0.0 0.00 1.50 1.50 99 1004.3
20260507004504 10 316 0.0 0.0 0.00 1.50 1.50 100 1004.2
20260507004304 10 317 0.0 0.0 0.00 1.50 1.50 100 1004.1
20260507004157 10 316 0.0 0.0 0.00 1.50 1.50 100 1004.1
20260507004058 10 317 0.0 0.0 0.00 1.50 1.50 100 1004.1
20260507003957 10 313 0.0 0.0 0.00 1.50 1.50 100 1004.0
20260507003755 10 313 0.0 0.0 0.00 1.50 1.50 100 1004.0
20260507003652 10 306 0.0 0.0 0.00 1.50 1.50 100 1004.0
20260507003551 10 279 0.0 0.0 0.00 1.50 1.50 100 1004.0
20260507003452 10 279 0.0 0.0 0.00 1.50 1.50 100 1004.0
20260507003349 10 279 0.0 0.0 0.00 1.50 1.50 100 1004.0
20260507003248 10 279 0.0 0.0 0.00 1.50 1.50 100 1004.0
20260507003144 10 279 0.0 3.2 0.00 1.50 1.50 100 1004.0
20260507003041 10 279 0.0 3.2 0.00 1.50 1.50 100 1003.9
20260507002943 10 279 0.0 3.2 0.00 1.50 1.50 100 1003.9
20260507002839 10 279 0.0 3.2 0.00 1.50 1.50 100 1004.0
20260507002741 10 279 0.0 3.2 0.00 1.50 1.50 100 1003.9
20260507002629 10 279 0.0 3.2 0.00 1.50 1.50 99 1004.0
20260507002529 10 279 0.0 3.2 0.00 1.50 1.50 99 1003.9
20260507002430 10 279 0.0 3.2 0.00 1.50 1.50 99 1003.9
20260507002327 10 279 0.0 3.2 0.00 1.50 1.50 99 1003.9
20260507002226 10 279 0.0 3.2 0.00 1.50 1.50 99 1003.9
20260507002119 10 204 0.0 1.6 0.00 1.50 1.50 100 1003.9
20260507002020 10 204 0.0 0.0 0.00 1.50 1.50 100 1003.9
20260507001921 10 205 0.0 0.0 0.00 1.50 1.50 100 1004.0
20260507001819 10 204 0.0 0.0 0.00 1.50 1.50 100 1004.0
20260507001721 10 204 0.0 0.0 0.00 1.50 1.50 100 1003.8
20260507001615 10 205 0.0 0.0 0.00 1.50 1.50 100 1003.8
20260507001515 10 204 0.0 1.6 0.00 1.50 1.50 100 1003.8
20260507001414 10 204 0.0 1.6 0.00 1.50 1.50 100 1003.8
20260507001315 10 205 0.0 1.6 0.00 1.50 1.50 100 1003.8
20260507001215 10 204 0.0 1.6 0.00 1.50 1.50 100 1003.7
20260507001108 10 205 0.0 1.6 0.00 1.50 1.50 100 1003.6
20260507001015 10 204 0.0 4.8 0.00 1.50 1.50 99 1003.5
20260507000955 10 204 0.0 4.8 0.00 1.50 1.50 100 1003.5
20260507000806 10 204 0.0 4.8 0.00 1.50 1.50 100 1003.5
20260507000704 10 204 0.0 4.8 0.00 1.50 1.50 100 1003.6
20260507000601 10 205 0.0 4.8 0.00 1.50 1.50 100 1003.7
20260507000501 10 206 0.0 4.8 0.00 1.50 1.50 100 1003.7
20260507000405 10 205 0.0 4.8 0.00 1.50 1.50 100 1003.7
20260507000301 10 205 0.0 4.8 0.00 1.50 1.50 100 1003.7
20260507000159 10 206 0.0 4.8 0.00 1.50 1.50 100 1003.7
20260507000055 10 203 0.0 4.8 0.00 1.50 1.50 99 1003.6
20260506235952 10 215 0.0 4.8 0.00 1.50 1.50 99 1003.6
20260506235750 10 221 0.0 4.8 0.00 1.50 1.50 99 1003.5
20260506235651 10 221 0.0 4.8 0.00 1.50 1.50 99 1003.6
20260506235542 10 346 0.0 1.6 0.00 1.50 1.50 99 1003.5
20260506235505 10 11 0.0 3.2 0.00 1.50 1.50 99 1003.5
20260506235340 10 11 0.0 3.2 0.00 1.50 1.50 99 1003.5
20260506235237 10 11 0.0 8.0 0.00 1.50 1.50 99 1003.4
20260506235136 10 11 0.0 8.0 0.00 1.50 1.50 99 1003.4
20260506235035 11 0 0.0 8.0 0.00 1.50 1.50 99 1003.5
20260506234934 11 0 0.0 8.0 0.00 1.50 1.50 99 1003.4
20260506234833 11 0 0.0 8.0 0.00 1.50 1.50 100 1003.4
20260506234732 11 0 0.0 8.0 0.00 1.50 1.50 100 1003.4
20260506234631 11 0 0.0 8.0 0.00 1.50 1.50 100 1003.4
20260506234525 11 5 0.0 8.0 0.00 1.50 1.50 100 1003.3
20260506234423 11 338 0.0 8.0 0.00 1.50 1.50 100 1003.4
20260506234324 11 338 0.0 8.0 0.00 1.50 1.50 100 1003.3
20260506234221 11 145 0.0 1.6 0.00 1.50 1.50 100 1003.3
20260506234122 11 145 0.0 1.6 0.00 1.50 1.50 100 1003.2
20260506234014 11 145 0.0 1.6 0.00 1.50 1.50 100 1003.2
20260506233912 11 145 0.0 1.6 0.00 1.50 1.50 100 1003.1
20260506233811 11 145 0.0 1.6 0.00 1.50 1.50 100 1003.2
20260506233713 11 145 0.0 1.6 0.00 1.50 1.50 100 1003.2
20260506233612 11 145 0.0 0.0 0.00 1.50 1.50 100 1003.2
20260506233506 11 145 0.0 0.0 0.00 1.50 1.50 100 1003.1
20260506233405 11 145 0.0 1.6 0.00 1.50 1.50 100 1003.2
20260506233307 11 145 0.0 1.6 0.00 1.50 1.50 100 1003.1
20260506233205 11 145 0.0 1.6 0.00 1.50 1.50 100 1003.1
20260506233106 12 145 0.0 1.6 0.00 1.50 1.50 100 1003.1
20260506233006 12 145 0.0 1.6 0.00 1.50 1.50 100 1003.1
20260506232904 12 145 0.0 1.6 0.00 1.50 1.50 100 1003.1
20260506232804 12 145 0.0 1.6 0.00 1.50 1.50 100 1003.1
20260506232703 12 145 0.0 1.6 0.03 1.50 1.50 100 1003.1
20260506232600 12 145 0.0 1.6 0.05 1.50 1.50 100 1003.1
20260506232452 12 145 0.0 1.6 0.08 1.50 1.50 100 1003.1
20260506232253 12 145 0.0 3.2 0.10 1.50 1.50 100 1003.1
20260506232151 12 145 0.0 3.2 0.13 1.50 1.50 100 1003.0
20260506232051 12 145 0.0 3.2 0.15 1.50 1.50 100 1003.0
20260506231952 12 145 0.0 3.2 0.20 1.50 1.50 100 1003.0
20260506231749 12 146 0.0 3.2 0.20 1.50 1.50 100 1003.0
20260506231649 12 146 0.0 3.2 0.23 1.50 1.50 100 1003.1
20260506231549 12 146 0.0 3.2 0.23 1.50 1.50 100 1003.1
20260506231451 12 141 0.0 3.2 0.25 1.50 1.50 100 1003.1
20260506231251 12 175 0.0 3.2 0.28 1.50 1.50 100 1003.1
20260506231149 12 175 0.0 3.2 0.30 1.50 1.50 100 1003.1
20260506231050 12 175 0.0 3.2 0.30 1.50 1.50 100 1003.0
20260506230950 12 151 0.0 3.2 0.30 1.50 1.50 100 1003.1
20260506230848 12 151 0.0 3.2 0.33 1.50 1.50 100 1003.1
20260506230649 13 149 0.0 3.2 0.33 1.50 1.50 100 1003.1
20260506230551 13 142 0.0 3.2 0.33 1.50 1.50 100 1003.1
20260506230449 13 162 0.0 0.0 0.33 1.50 1.50 100 1003.1
20260506230249 13 117 0.0 0.0 0.36 1.50 1.50 100 1003.1
20260506230151 13 117 0.0 0.0 0.36 1.50 1.50 100 1003.1
20260506230049 13 117 0.0 0.0 0.36 1.50 1.50 100 1003.0
20260506225950 13 112 0.0 0.0 0.36 1.50 1.50 100 1003.0
20260506225746 13 111 0.0 0.0 0.38 1.50 1.50 100 1003.0
20260506225645 13 111 0.0 0.0 0.38 1.50 1.50 100 1003.0
20260506225547 13 114 0.0 0.0 0.38 1.50 1.50 100 1003.0
20260506225446 13 115 0.0 0.0 0.38 1.50 1.50 100 1003.0
20260506225247 13 115 0.0 0.0 0.41 1.50 1.50 100 1003.0
20260506225142 13 115 0.0 1.6 0.43 1.50 1.50 100 1002.9
20260506225042 13 115 0.0 1.6 0.43 1.50 1.50 100 1002.9
20260506224943 13 115 0.0 1.6 0.46 1.50 1.50 100 1002.9
20260506224742 13 115 0.0 1.6 0.46 1.50 1.50 100 1002.9
20260506224643 13 115 0.0 1.6 0.46 1.50 1.50 100 1002.8
20260506224541 13 115 0.0 1.6 0.46 1.50 1.50 100 1002.8
20260506224441 13 115 0.0 1.6 0.46 1.50 1.50 100 1002.9
20260506224242 13 115 0.0 1.6 0.46 1.50 1.50 100 1002.9
20260506224141 13 83 0.0 1.6 0.46 1.50 1.50 100 1002.9
20260506224041 13 83 0.0 1.6 0.48 1.50 1.50 100 1002.8
20260506223941 13 83 0.0 1.6 0.48 1.50 1.50 100 1002.8
20260506223741 13 82 0.0 3.2 0.51 1.50 1.50 100 1002.9
20260506223643 13 34 0.0 11.3 0.51 1.50 1.50 100 1002.9
20260506223541 13 34 0.0 11.3 0.51 1.50 1.50 100 1002.9
20260506223443 13 34 0.0 11.3 0.51 1.50 1.50 100 1002.9
20260506223342 13 34 0.0 11.3 0.51 1.50 1.50 100 1002.9
20260506223241 13 33 0.0 11.3 0.51 1.50 1.50 100 1003.0
20260506223143 13 34 0.0 11.3 0.53 1.50 1.50 100 1002.9
20260506223041 13 34 0.0 11.3 0.56 1.50 1.50 100 1002.9
20260506223004 13 49 0.0 11.3 0.56 1.50 1.50 100 1002.9
20260506222942 13 355 0.0 11.3 0.56 1.50 1.50 100 1002.9
20260506222742 13 355 0.0 11.3 0.56 1.47 1.50 100 1002.9
20260506222642 13 49 0.0 9.7 0.56 1.47 1.47 100 1003.0
20260506222542 13 226 0.0 9.7 0.56 1.45 1.47 100 1002.9
20260506222442 13 294 0.0 9.7 0.53 1.42 1.45 100 1003.0
20260506222242 13 294 0.0 9.7 0.53 1.40 1.40 100 1002.9
20260506222142 13 294 0.0 9.7 0.51 1.37 1.40 100 1002.8
20260506222040 13 263 1.6 9.7 0.51 1.35 1.37 100 1002.8
20260506221941 13 261 1.6 9.7 0.46 1.30 1.32 100 1002.8
20260506221742 13 279 1.6 11.3 0.46 1.30 1.30 100 1002.6
20260506221641 13 190 3.2 11.3 0.46 1.27 1.27 100 1002.6
20260506221542 13 134 3.2 11.3 0.46 1.27 1.27 100 1002.5
20260506221442 13 148 3.2 11.3 0.43 1.24 1.27 100 1002.6
20260506221343 13 155 3.2 11.3 0.43 1.24 1.24 100 1002.5
20260506221242 13 119 3.2 11.3 0.41 1.22 1.22 100 1002.5
20260506221208 13 180 3.2 11.3 0.41 1.19 1.22 100 1002.5
20260506221043 13 130 3.2 11.3 0.41 1.19 1.19 100 1002.5
20260506221001 13 136 3.2 11.3 0.41 1.19 1.19 100 1002.6
20260506220941 13 126 1.6 11.3 0.38 1.17 1.17 100 1002.6
20260506220741 13 151 1.6 9.7 0.38 1.17 1.17 100 1002.6
20260506220641 13 126 1.6 9.7 0.41 1.17 1.17 100 1002.6
20260506220543 13 138 1.6 9.7 0.41 1.17 1.17 100 1002.6
20260506220437 13 163 1.6 9.7 0.38 1.17 1.17 100 1002.6
20260506220237 13 171 1.6 11.3 0.38 1.17 1.14 100 1002.6
20260506220138 13 123 1.6 11.3 0.38 1.19 1.14 100 1002.6
20260506220037 13 150 1.6 11.3 0.38 1.19 1.14 100 1002.6
20260506215937 13 160 1.6 11.3 0.38 1.19 1.14 100 1002.6
20260506215736 13 139 1.6 11.3 0.36 1.19 1.14 100 1002.8
20260506215634 13 180 0.0 11.3 0.36 1.22 1.12 100 1002.8
20260506215535 13 136 0.0 11.3 0.36 1.22 1.12 100 1002.8
20260506215435 13 122 0.0 11.3 0.36 1.22 1.12 100 1002.8
20260506215230 13 138 0.0 9.7 0.33 1.22 1.12 100 1002.8
20260506215125 13 142 1.6 9.7 0.30 1.19 1.09 100 1002.8
20260506215024 13 155 1.6 9.7 0.30 1.22 1.07 100 1002.8
20260506214921 13 153 1.6 9.7 0.28 1.19 1.07 100 1002.8
20260506214719 13 167 1.6 9.7 0.30 1.22 1.04 100 1002.8
20260506214617 13 143 1.6 9.7 0.30 1.22 1.04 100 1002.8
20260506214517 13 133 1.6 9.7 0.30 1.22 1.04 100 1002.8
20260506214418 13 174 1.6 12.9 0.30 1.22 1.04 100 1002.8
20260506214211 13 137 1.6 12.9 0.30 1.22 1.04 100 1002.8
20260506214111 13 163 1.6 12.9 0.30 1.22 1.04 100 1002.8
20260506214011 13 157 1.6 12.9 0.28 1.22 1.04 100 1002.8
20260506213913 13 164 3.2 12.9 0.30 1.22 1.02 100 1002.9
20260506213700 13 150 3.2 12.9 0.28 1.19 1.02 100 1002.9
20260506213559 13 146 3.2 12.9 0.28 1.19 0.99 100 1002.9
20260506213458 13 144 3.2 12.9 0.28 1.19 0.99 100 1002.9
20260506213400 13 132 3.2 12.9 0.28 1.19 0.99 100 1002.9
20260506213153 13 140 3.2 12.9 0.25 1.19 0.97 100 1002.9
20260506213054 13 202 3.2 12.9 0.23 1.17 0.97 100 1003.0
20260506212954 13 192 1.6 12.9 0.23 1.17 0.94 100 1003.0
20260506212854 13 134 1.6 9.7 0.23 1.17 0.94 100 1003.0
20260506212650 13 128 1.6 9.7 0.20 1.14 0.91 100 1003.1
20260506212627 13 138 1.6 9.7 0.18 1.12 0.89 100 1003.1
20260506212448 13 170 1.6 11.3 0.18 1.12 0.89 100 1003.0
20260506212413 13 147 1.6 11.3 0.15 1.09 0.89 100 1003.0
20260506212351 13 109 3.2 11.3 0.15 1.09 0.86 100 1003.1
20260506212135 13 162 3.2 17.7 0.15 1.09 0.86 100 1003.1
20260506212037 13 171 3.2 17.7 0.13 1.07 0.86 100 1003.0
20260506211836 13 150 3.2 17.7 0.13 1.07 0.84 100 1003.0
20260506211630 13 169 3.2 17.7 0.10 1.04 0.81 100 1003.0
20260506211527 13 153 4.8 17.7 0.13 1.04 0.81 100 1003.1
20260506211426 13 161 4.8 17.7 0.13 1.04 0.81 100 1003.1
20260506211328 13 157 4.8 17.7 0.13 1.04 0.81 100 1003.1
20260506211124 13 134 3.2 16.1 0.10 1.02 0.81 100 1003.0
20260506211021 13 139 3.2 12.9 0.10 1.02 0.79 100 1003.1
20260506210922 13 133 3.2 12.9 0.10 1.02 0.79 100 1003.1
20260506210849 13 155 3.2 12.9 0.10 1.02 0.79 100 1003.1
20260506210826 13 159 3.2 11.3 0.08 0.99 0.79 100 1003.1
20260506210611 13 129 3.2 11.3 0.08 0.99 0.76 100 1003.1
20260506210511 13 132 3.2 11.3 0.08 0.99 0.76 100 1003.2
20260506210412 13 198 3.2 11.3 0.08 0.99 0.76 100 1003.1
20260506210311 13 146 3.2 11.3 0.08 0.99 0.76 100 1003.1
20260506210106 13 167 3.2 11.3 0.08 0.99 0.76 100 1003.1
20260506210006 13 132 3.2 11.3 0.08 0.99 0.76 100 1003.2
20260506205905 13 164 3.2 11.3 0.08 0.99 0.76 100 1003.2
20260506205805 13 155 3.2 11.3 0.08 0.99 0.76 100 1003.2
20260506205600 13 175 3.2 11.3 0.08 0.99 0.76 100 1003.2
20260506205459 13 130 3.2 11.3 0.08 0.99 0.76 100 1003.2
20260506205400 13 156 3.2 11.3 0.08 0.99 0.76 100 1003.2
20260506205259 13 144 3.2 11.3 0.08 0.99 0.76 100 1003.2
20260506205046 13 153 3.2 9.7 0.08 0.99 0.76 100 1003.3
20260506204947 13 151 3.2 12.9 0.08 0.99 0.76 100 1003.2
20260506204847 13 139 3.2 12.9 0.05 0.97 0.76 100 1003.3
20260506204747 13 143 3.2 12.9 0.05 0.97 0.74 100 1003.3
20260506204540 13 155 3.2 12.9 0.05 0.97 0.74 100 1003.4
20260506204440 13 180 3.2 12.9 0.05 0.97 0.74 100 1003.4
20260506204339 13 142 3.2 12.9 0.05 0.97 0.74 100 1003.4
20260506204240 13 140 3.2 12.9 0.05 0.97 0.74 100 1003.4
20260506204037 13 144 1.6 12.9 0.05 0.97 0.74 100 1003.3
20260506203937 13 170 3.2 11.3 0.03 0.94 0.74 100 1003.4
20260506203836 13 155 3.2 11.3 0.03 0.94 0.71 100 1003.4
20260506203736 13 138 3.2 11.3 0.03 0.94 0.71 100 1003.4
20260506203528 13 144 3.2 11.3 0.05 0.94 0.71 100 1003.4
20260506203428 13 140 3.2 11.3 0.05 0.94 0.71 100 1003.4
20260506203324 13 143 3.2 11.3 0.05 0.94 0.71 100 1003.4
20260506203226 13 138 3.2 11.3 0.05 0.94 0.71 100 1003.4
20260506203020 13 137 3.2 12.9 0.05 0.94 0.71 100 1003.5
20260506202918 13 129 3.2 12.9 0.05 0.94 0.71 100 1003.5
20260506202818 13 154 3.2 12.9 0.05 0.94 0.71 100 1003.5
20260506202742 13 187 3.2 12.9 0.05 0.94 0.71 100 1003.5
20260506202721 13 189 3.2 12.9 0.05 0.94 0.71 100 1003.5
20260506202515 13 144 3.2 12.9 0.05 0.94 0.71 100 1003.5
20260506202412 13 169 3.2 12.9 0.05 0.94 0.71 100 1003.5
20260506202310 13 138 3.2 12.9 0.05 0.94 0.71 100 1003.5
20260506202212 13 132 3.2 12.9 0.05 0.94 0.71 100 1003.5
20260506202000 13 184 4.8 14.5 0.05 0.94 0.71 100 1003.6
20260506201857 13 136 3.2 14.5 0.05 0.94 0.71 100 1003.6
20260506201756 13 123 3.2 14.5 0.08 0.94 0.71 100 1003.6
20260506201658 13 163 3.2 14.5 0.08 0.94 0.71 100 1003.6
20260506201451 13 155 3.2 14.5 0.05 0.91 0.69 100 1003.6
20260506201352 13 165 3.2 14.5 0.05 0.91 0.69 100 1003.7
20260506201252 13 183 3.2 14.5 0.05 0.91 0.69 100 1003.7
20260506201153 13 140 3.2 14.5 0.05 0.91 0.69 100 1003.7
20260506200947 13 135 3.2 14.5 0.05 0.91 0.69 100 1003.6
20260506200847 13 171 3.2 14.5 0.05 0.91 0.69 100 1003.7
20260506200748 13 154 3.2 14.5 0.05 0.91 0.69 100 1003.7
20260506200647 13 157 3.2 14.5 0.05 0.91 0.69 100 1003.7
20260506200435 13 161 3.2 14.5 0.08 0.91 0.69 100 1003.7
20260506200335 13 157 3.2 14.5 0.08 0.91 0.69 100 1003.7
20260506200236 13 126 3.2 12.9 0.08 0.91 0.69 100 1003.7
20260506200136 13 171 3.2 12.9 0.08 0.91 0.69 100 1003.7
20260506195930 13 146 3.2 12.9 0.08 0.91 0.69 100 1003.7
20260506195829 13 138 3.2 12.9 0.08 0.91 0.69 100 1003.7
20260506195728 13 168 3.2 12.9 0.08 0.91 0.69 100 1003.7
20260506195630 13 130 3.2 12.9 0.08 0.91 0.69 100 1003.7
20260506195424 13 165 3.2 11.3 0.10 0.91 0.69 100 1003.8
20260506195323 13 131 3.2 11.3 0.10 0.91 0.69 100 1003.8
20260506195224 13 131 3.2 9.7 0.10 0.91 0.69 100 1003.8
20260506195123 13 129 3.2 11.3 0.10 0.91 0.69 100 1003.8
20260506194911 13 143 3.2 11.3 0.10 0.91 0.69 100 1003.8
20260506194811 13 155 1.6 11.3 0.13 0.91 0.69 100 1003.8
20260506194710 13 148 1.6 11.3 0.13 0.91 0.69 100 1003.9
20260506194609 13 123 1.6 11.3 0.13 0.91 0.69 100 1003.9
20260506194402 13 125 1.6 11.3 0.13 0.91 0.69 100 1003.9
20260506194303 13 167 1.6 11.3 0.15 0.91 0.69 100 1004.0
20260506194204 13 186 1.6 11.3 0.15 0.91 0.69 100 1003.9
20260506194104 13 125 1.6 11.3 0.15 0.91 0.69 100 1003.9
20260506193900 13 155 1.6 11.3 0.15 0.91 0.69 100 1003.9
20260506193758 13 152 1.6 11.3 0.15 0.91 0.69 100 1003.9
20260506193658 13 148 1.6 11.3 0.15 0.91 0.69 100 1004.0
20260506193558 13 167 1.6 8.0 0.15 0.91 0.69 100 1004.0
20260506193350 13 161 1.6 11.3 0.15 0.89 0.66 100 1004.0
20260506193247 13 171 1.6 11.3 0.15 0.89 0.66 100 1004.0
20260506193148 13 177 1.6 11.3 0.15 0.89 0.66 100 1004.0
20260506193047 13 181 1.6 11.3 0.15 0.89 0.66 100 1004.0
20260506192847 13 149 1.6 11.3 0.15 0.89 0.66 100 1004.1
20260506192746 13 161 1.6 11.3 0.15 0.89 0.66 100 1004.0
20260506192642 13 144 1.6 11.3 0.15 0.89 0.66 100 1004.0
20260506192544 13 138 1.6 11.3 0.18 0.89 0.66 100 1004.1
20260506192337 13 139 3.2 17.7 0.18 0.89 0.66 100 1004.1
20260506192237 13 141 3.2 17.7 0.18 0.89 0.66 100 1004.1
20260506192137 13 186 3.2 17.7 0.18 0.89 0.66 100 1004.1
20260506192101 13 162 3.2 17.7 0.18 0.89 0.66 100 1004.1
20260506192039 13 163 3.2 17.7 0.20 0.89 0.66 100 1004.2
20260506191821 13 140 3.2 17.7 0.18 0.86 0.66 100 1004.2
20260506191721 13 158 3.2 17.7 0.18 0.86 0.64 100 1004.1
20260506191622 13 173 3.2 17.7 0.18 0.86 0.64 100 1004.1
20260506191520 13 155 3.2 17.7 0.18 0.86 0.64 100 1004.2
20260506191422 13 173 3.2 17.7 0.18 0.86 0.64 100 1004.2
20260506191317 13 142 3.2 12.9 0.20 0.86 0.64 100 1004.2
20260506191216 13 137 3.2 12.9 0.20 0.86 0.64 100 1004.2
20260506191117 13 130 3.2 12.9 0.20 0.86 0.64 100 1004.2
20260506191017 13 123 3.2 12.9 0.20 0.86 0.64 100 1004.2
20260506190915 13 140 3.2 12.9 0.20 0.86 0.64 100 1004.2
20260506190809 13 138 3.2 12.9 0.23 0.86 0.64 100 1004.2
20260506190709 13 101 4.8 12.9 0.23 0.86 0.64 100 1004.2
20260506190610 13 154 4.8 12.9 0.23 0.86 0.64 100 1004.2
20260506190509 13 136 3.2 11.3 0.20 0.84 0.61 100 1004.2
20260506190410 13 126 3.2 11.3 0.20 0.84 0.61 100 1004.2
20260506190300 13 129 3.2 11.3 0.23 0.84 0.61 100 1004.2
20260506190202 13 189 3.2 11.3 0.23 0.84 0.61 100 1004.2
20260506190105 13 131 3.2 11.3 0.23 0.84 0.61 100 1004.2
20260506190042 13 161 3.2 11.3 0.25 0.84 0.61 100 1004.2
20260506185900 13 138 3.2 11.3 0.25 0.84 0.61 100 1004.2
20260506185752 13 150 3.2 11.3 0.25 0.84 0.61 100 1004.2
20260506185654 13 142 3.2 14.5 0.25 0.84 0.61 100 1004.2
20260506185554 13 132 3.2 14.5 0.25 0.84 0.61 100 1004.3
20260506185453 13 163 4.8 14.5 0.25 0.81 0.58 100 1004.2
20260506185354 13 125 4.8 14.5 0.25 0.81 0.58 100 1004.2
20260506185250 13 113 4.8 16.1 0.25 0.81 0.58 100 1004.4
20260506185147 13 177 4.8 16.1 0.25 0.81 0.58 100 1004.3
20260506185048 13 142 4.8 16.1 0.25 0.81 0.58 100 1004.4
20260506184946 13 150 4.8 16.1 0.25 0.81 0.58 100 1004.4
20260506184848 13 148 4.8 16.1 0.23 0.79 0.56 100 1004.3
20260506184734 13 140 4.8 16.1 0.25 0.79 0.56 100 1004.4
20260506184632 13 180 4.8 16.1 0.25 0.79 0.56 100 1004.2
20260506184534 13 163 6.4 16.1 0.25 0.79 0.56 100 1004.3
20260506184230 13 151 4.8 16.1 0.25 0.76 0.53 100 1004.2
20260506184126 13 140 4.8 16.1 0.25 0.76 0.53 100 1004.2
20260506184027 13 135 4.8 12.9 0.25 0.76 0.53 100 1004.2
20260506183928 13 153 4.8 12.9 0.25 0.76 0.53 100 1004.3
20260506183828 13 130 4.8 12.9 0.25 0.76 0.53 100 1004.3
20260506183721 13 150 4.8 12.9 0.28 0.76 0.53 100 1004.2
20260506183622 13 174 4.8 12.9 0.28 0.76 0.53 100 1004.3
20260506183522 13 205 3.2 12.9 0.28 0.76 0.53 100 1004.2
20260506183420 13 147 3.2 12.9 0.25 0.74 0.51 100 1004.3
20260506183321 13 161 3.2 12.9 0.25 0.74 0.51 100 1004.4
20260506183212 13 165 3.2 12.9 0.25 0.74 0.51 100 1004.3
20260506183110 13 172 3.2 12.9 0.25 0.74 0.51 100 1004.5
20260506183012 13 152 1.6 9.7 0.28 0.74 0.51 100 1004.5
20260506182912 13 139 1.6 9.7 0.28 0.74 0.51 100 1004.5
20260506182826 13 154 1.6 9.7 0.28 0.74 0.51 100 1004.5
20260506182803 13 142 1.6 9.7 0.28 0.74 0.51 100 1004.5
20260506182606 13 131 1.6 9.7 0.28 0.74 0.51 100 1004.5
20260506182542 13 135 1.6 9.7 0.25 0.71 0.48 100 1004.5
20260506182405 13 157 1.6 12.9 0.28 0.71 0.48 100 1004.5
20260506182307 13 165 1.6 12.9 0.28 0.71 0.48 100 1004.5
20260506182201 13 164 1.6 12.9 0.28 0.71 0.48 100 1004.6
20260506182102 13 138 1.6 12.9 0.28 0.71 0.48 100 1004.5
20260506182000 13 177 1.6 12.9 0.25 0.69 0.48 100 1004.6
20260506181901 13 133 1.6 12.9 0.25 0.69 0.46 100 1004.6
20260506181800 13 133 1.6 12.9 0.25 0.69 0.46 100 1004.6
20260506181645 13 145 3.2 12.9 0.25 0.69 0.46 100 1004.7
20260506181555 13 157 1.6 12.9 0.25 0.69 0.46 100 1004.7
20260506181534 13 186 1.6 12.9 0.28 0.69 0.46 100 1004.7
20260506181345 13 138 1.6 9.7 0.25 0.66 0.43 100 1004.7
20260506181246 13 140 1.6 8.0 0.25 0.66 0.43 100 1004.8
20260506181140 13 154 1.6 8.0 0.25 0.66 0.43 100 1004.8
20260506181040 13 135 1.6 11.3 0.25 0.66 0.43 100 1004.8
20260506180938 13 133 1.6 11.3 0.28 0.66 0.43 100 1004.8
20260506180840 13 159 1.6 11.3 0.25 0.64 0.43 100 1004.8
20260506180739 13 167 1.6 11.3 0.25 0.64 0.41 100 1004.9
20260506180640 13 185 1.6 11.3 0.25 0.64 0.41 100 1004.9
20260506180538 13 172 1.6 11.3 0.25 0.64 0.41 100 1004.9
20260506180435 13 167 1.6 11.3 0.25 0.64 0.41 100 1004.9
20260506180336 13 161 1.6 11.3 0.23 0.61 0.41 100 1004.9
20260506180234 13 138 1.6 11.3 0.25 0.61 0.38 99 1004.8
20260506180122 13 143 1.6 11.3 0.25 0.61 0.38 99 1004.9
20260506180022 13 143 1.6 11.3 0.23 0.58 0.38 99 1005.0
20260506175924 13 143 1.6 11.3 0.23 0.58 0.36 99 1005.0
20260506175824 13 133 1.6 11.3 0.23 0.58 0.36 99 1005.0
20260506175723 13 131 1.6 11.3 0.23 0.58 0.36 99 1005.0
20260506175617 13 131 1.6 11.3 0.23 0.58 0.36 99 1005.1
20260506175518 13 134 1.6 11.3 0.23 0.58 0.36 99 1005.0
20260506175317 13 167 1.6 9.7 0.20 0.56 0.33 99 1005.1
20260506175217 13 137 1.6 8.0 0.23 0.56 0.33 99 1005.0
20260506175112 13 177 1.6 8.0 0.23 0.56 0.33 99 1005.0
20260506175012 13 178 1.6 8.0 0.23 0.56 0.33 99 1005.0
20260506174910 13 178 1.6 8.0 0.23 0.56 0.33 99 1005.0
20260506174810 13 178 1.6 8.0 0.20 0.53 0.33 99 1005.0
20260506174711 13 163 1.6 8.0 0.20 0.53 0.30 99 1005.1
20260506174603 13 163 0.0 8.0 0.20 0.53 0.30 99 1005.1
20260506174504 13 177 0.0 6.4 0.20 0.53 0.30 99 1005.0
20260506174403 13 177 0.0 6.4 0.20 0.53 0.30 99 1005.0
20260506174303 13 178 0.0 6.4 0.18 0.51 0.30 99 1005.3
20260506174205 13 178 0.0 6.4 0.20 0.51 0.28 99 1005.1
20260506174100 13 178 0.0 6.4 0.20 0.51 0.28 99 1005.1
20260506174001 13 178 0.0 6.4 0.20 0.51 0.28 99 1005.1
20260506173900 13 178 0.0 6.4 0.20 0.51 0.28 99 1005.1
20260506173802 13 178 0.0 0.0 0.20 0.51 0.28 99 1005.1
20260506173700 13 178 0.0 0.0 0.18 0.48 0.28 99 1005.1
20260506173601 13 178 0.0 0.0 0.18 0.48 0.25 99 1005.3
20260506173500 13 178 0.0 0.0 0.18 0.48 0.25 99 1005.1
20260506173402 13 178 0.0 0.0 0.18 0.48 0.25 99 1005.1
20260506173301 13 178 0.0 0.0 0.18 0.48 0.25 99 1005.1
20260506173201 13 178 0.0 0.0 0.18 0.48 0.25 99 1005.1
20260506173100 13 178 0.0 0.0 0.15 0.46 0.25 99 1005.1
20260506173000 13 178 0.0 0.0 0.15 0.46 0.23 99 1005.1
20260506172858 13 178 0.0 0.0 0.15 0.46 0.23 99 1005.3
20260506172758 13 178 0.0 0.0 0.15 0.46 0.23 99 1005.3
20260506172656 13 178 0.0 0.0 0.15 0.46 0.23 99 1005.3
20260506172554 13 178 0.0 0.0 0.15 0.46 0.23 98 1005.3
20260506172454 13 178 0.0 0.0 0.13 0.43 0.23 99 1005.4
20260506172352 13 178 0.0 0.0 0.15 0.43 0.20 98 1005.4
20260506172252 13 178 0.0 0.0 0.15 0.43 0.20 98 1005.5
20260506172151 13 178 0.0 0.0 0.15 0.43 0.20 98 1005.5
20260506172050 13 178 0.0 0.0 0.15 0.43 0.20 98 1005.5
20260506172021 13 178 0.0 0.0 0.15 0.43 0.20 98 1005.5
20260506171842 13 178 0.0 0.0 0.15 0.43 0.20 98 1005.5
20260506171741 13 178 0.0 0.0 0.15 0.43 0.20 98 1005.5
20260506171640 13 178 0.0 0.0 0.15 0.43 0.20 98 1005.5
20260506171538 13 178 0.0 0.0 0.15 0.43 0.20 98 1005.5
20260506171437 13 178 0.0 0.0 0.13 0.41 0.20 98 1005.6
20260506171336 13 178 0.0 0.0 0.13 0.41 0.18 98 1005.5
20260506171235 13 178 0.0 0.0 0.13 0.41 0.18 98 1005.5
20260506171134 13 178 0.0 0.0 0.13 0.41 0.18 98 1005.6
20260506171032 13 178 0.0 0.0 0.13 0.41 0.18 98 1005.6
20260506170934 13 178 0.0 0.0 0.10 0.38 0.18 98 1005.6
20260506170833 13 178 0.0 0.0 0.10 0.38 0.15 98 1005.6
20260506170733 13 178 0.0 0.0 0.10 0.38 0.15 98 1005.6
20260506170633 13 178 0.0 0.0 0.10 0.38 0.15 98 1005.6
20260506170531 13 178 0.0 0.0 0.10 0.38 0.15 98 1005.6
20260506170430 13 178 0.0 0.0 0.10 0.38 0.15 98 1005.6
20260506170330 13 178 0.0 0.0 0.10 0.38 0.15 98 1005.6
20260506170232 13 178 0.0 0.0 0.10 0.36 0.15 98 1005.6
20260506170131 13 178 0.0 0.0 0.10 0.36 0.13 98 1005.6
20260506170030 13 178 0.0 0.0 0.10 0.36 0.13 98 1005.6
20260506165928 13 178 0.0 0.0 0.10 0.36 0.13 98 1005.6
20260506165830 13 178 0.0 0.0 0.10 0.36 0.13 98 1005.7
20260506165730 13 178 0.0 0.0 0.10 0.36 0.13 98 1005.6
20260506165629 13 178 0.0 0.0 0.10 0.36 0.13 98 1005.6
20260506165540 13 178 0.0 0.0 0.10 0.36 0.13 98 1005.5
20260506165519 13 178 0.0 0.0 0.10 0.36 0.13 97 1005.5
20260506165326 13 178 0.0 0.0 0.10 0.36 0.13 98 1005.5
20260506165223 13 178 0.0 0.0 0.08 0.33 0.13 98 1005.5
20260506165120 13 178 0.0 0.0 0.08 0.33 0.13 98 1005.6
20260506165038 13 178 0.0 0.0 0.08 0.33 0.10 98 1005.6
20260506165018 13 178 0.0 0.0 0.08 0.33 0.10 98 1005.6
20260506164820 13 178 0.0 0.0 0.08 0.33 0.10 97 1005.6
20260506164717 13 178 0.0 0.0 0.08 0.33 0.10 97 1005.6
20260506164610 13 178 0.0 0.0 0.08 0.33 0.10 97 1005.6
20260506164511 13 178 0.0 0.0 0.08 0.33 0.10 97 1005.6
20260506164308 13 178 0.0 0.0 0.08 0.33 0.10 97 1005.7
20260506164210 13 178 0.0 0.0 0.05 0.30 0.08 98 1005.7
20260506164110 13 178 0.0 0.0 0.05 0.30 0.08 97 1005.7
20260506164033 13 178 0.0 0.0 0.05 0.30 0.08 97 1005.7
20260506164013 13 178 0.0 0.0 0.05 0.30 0.08 97 1005.7
20260506163809 13 178 0.0 0.0 0.05 0.30 0.08 97 1005.7
20260506163710 13 178 0.0 0.0 0.05 0.30 0.08 97 1005.7
20260506163609 13 178 0.0 0.0 0.05 0.30 0.08 97 1005.7
20260506163507 13 178 0.0 0.0 0.08 0.30 0.08 97 1005.7
20260506163406 13 178 0.0 0.0 0.08 0.30 0.08 98 1005.7
20260506163305 13 178 0.0 0.0 0.08 0.30 0.08 97 1005.7
20260506163205 13 178 0.0 0.0 0.08 0.30 0.08 97 1005.8
20260506163105 13 178 0.0 0.0 0.08 0.30 0.08 97 1005.8
20260506163029 13 178 0.0 0.0 0.08 0.30 0.08 97 1005.8
20260506162905 13 178 0.0 0.0 0.08 0.30 0.08 97 1005.8
20260506162802 13 178 0.0 0.0 0.08 0.30 0.08 97 1005.8
20260506162704 13 178 0.0 0.0 0.08 0.30 0.08 97 1005.8
20260506162601 13 178 0.0 0.0 0.08 0.30 0.08 97 1005.8
20260506162459 13 178 0.0 0.0 0.08 0.30 0.08 97 1005.8
20260506162359 13 178 0.0 0.0 0.05 0.28 0.08 97 1005.8
20260506162256 13 178 0.0 0.0 0.05 0.28 0.05 97 1005.8
20260506162158 13 178 0.0 0.0 0.05 0.28 0.05 96 1005.8
20260506162055 13 178 0.0 0.0 0.05 0.28 0.05 96 1005.8
20260506162018 13 178 0.0 0.0 0.05 0.28 0.05 97 1005.8
20260506161850 13 178 0.0 0.0 0.05 0.28 0.05 97 1005.9
20260506161747 13 178 0.0 0.0 0.05 0.28 0.05 96 1005.9
20260506161650 13 178 0.0 0.0 0.05 0.28 0.05 96 1005.9
20260506161549 13 178 0.0 0.0 0.05 0.28 0.05 97 1006.0
20260506161448 13 178 0.0 0.0 0.05 0.28 0.05 97 1006.0
20260506161347 13 178 0.0 0.0 0.05 0.28 0.05 97 1006.1
20260506161244 13 178 0.0 0.0 0.05 0.28 0.05 97 1006.1
20260506161144 13 178 0.0 0.0 0.05 0.28 0.05 97 1006.1
20260506161043 13 178 0.0 0.0 0.05 0.28 0.05 96 1006.1
20260506160942 13 178 0.0 0.0 0.05 0.28 0.05 96 1006.1
20260506160843 13 178 0.0 0.0 0.05 0.28 0.05 96 1006.2
20260506160744 13 178 0.0 0.0 0.05 0.28 0.05 96 1006.2
20260506160640 13 178 0.0 0.0 0.05 0.28 0.05 96 1006.3
20260506160540 13 178 0.0 0.0 0.05 0.28 0.05 96 1006.3
20260506160442 13 178 0.0 0.0 0.05 0.28 0.05 96 1006.2
20260506160339 13 178 0.0 0.0 0.05 0.28 0.05 96 1006.3
20260506160237 13 178 0.0 0.0 0.03 0.25 0.03 96 1006.4
20260506160136 13 178 0.0 0.0 0.03 0.25 0.03 96 1006.4
20260506160036 13 178 0.0 0.0 0.03 0.25 0.03 95 1006.4
20260506155935 13 178 0.0 0.0 0.03 0.25 0.03 95 1006.4
20260506155832 13 178 0.0 0.0 0.03 0.25 0.03 95 1006.5
20260506155734 13 178 0.0 0.0 0.03 0.25 0.03 95 1006.6
20260506155628 13 178 0.0 0.0 0.03 0.25 0.03 95 1006.6
20260506155530 13 178 0.0 0.0 0.03 0.25 0.03 95 1006.6
20260506155428 13 178 0.0 0.0 0.03 0.25 0.03 95 1006.6
20260506155328 13 178 0.0 0.0 0.03 0.25 0.03 95 1006.6
20260506155230 13 178 0.0 1.6 0.03 0.25 0.03 95 1006.6
20260506155129 13 178 0.0 1.6 0.03 0.25 0.03 95 1006.6
20260506155025 13 178 0.0 1.6 0.03 0.25 0.03 95 1006.7
20260506154926 13 178 0.0 1.6 0.03 0.25 0.03 94 1006.7
20260506154827 13 178 0.0 1.6 0.03 0.25 0.03 94 1006.7
20260506154727 13 178 0.0 3.2 0.03 0.25 0.03 95 1006.8
20260506154627 13 178 0.0 3.2 0.03 0.25 0.03 95 1006.8
20260506154527 13 178 0.0 3.2 0.03 0.25 0.03 94 1006.9
20260506154504 13 178 0.0 3.2 0.03 0.25 0.03 94 1006.9
20260506154318 13 178 0.0 3.2 0.03 0.25 0.03 94 1006.9
20260506154218 13 178 0.0 3.2 0.03 0.25 0.03 94 1006.9
20260506154119 13 178 0.0 3.2 0.03 0.25 0.03 94 1007.0
20260506154018 13 178 0.0 3.2 0.03 0.25 0.03 94 1006.9
20260506153911 13 178 0.0 3.2 0.03 0.25 0.03 94 1007.0
20260506153810 13 178 0.0 3.2 0.03 0.25 0.03 94 1007.0
20260506153710 13 178 0.0 0.0 0.03 0.25 0.03 94 1007.0
20260506153609 13 178 0.0 0.0 0.03 0.25 0.03 94 1007.0
20260506153510 13 178 0.0 0.0 0.00 0.23 0.03 93 1007.0
20260506153411 13 178 0.0 0.0 0.00 0.23 0.00 93 1006.9
20260506153312 13 178 0.0 0.0 0.00 0.23 0.00 93 1006.9
20260506153208 13 178 0.0 0.0 0.00 0.23 0.00 93 1006.9
20260506153106 13 178 0.0 0.0 0.00 0.23 0.00 93 1006.9
20260506153006 13 178 0.0 0.0 0.00 0.23 0.00 92 1006.9
20260506152906 13 178 0.0 1.6 0.00 0.23 0.00 92 1006.9
20260506152806 13 178 0.0 1.6 0.00 0.23 0.00 92 1006.9
20260506152706 13 178 0.0 1.6 0.00 0.23 0.00 92 1006.9
20260506152608 13 178 0.0 1.6 0.00 0.23 0.00 92 1006.9
20260506152502 13 178 0.0 1.6 0.00 0.23 0.00 92 1006.9
20260506152402 13 178 0.0 1.6 0.00 0.23 0.00 92 1007.0
20260506152305 13 178 0.0 1.6 0.00 0.23 0.00 92 1007.0